| time (UTC) | temp C | wind direction | speed KPH | gust KPH | rain 1hr cm | rain 24hr cm | rain mn cm | humidity % | barometer mb |
| 20260903190707 | 30 | 180 | 0.0 | 9.7 | 0.03 | 1.40 | 1.40 | 69 | 1009.4 |
| 20260903190504 | 30 | 195 | 0.0 | 9.7 | 0.03 | 1.40 | 1.40 | 70 | 1009.3 |
| 20260903190454 | 30 | 210 | 0.0 | 9.7 | 0.08 | 1.40 | 1.40 | 70 | 1009.4 |
| 20260903190429 | 30 | 234 | 0.0 | 9.7 | 0.03 | 1.40 | 1.40 | 70 | 1009.3 |
| 20260903190119 | 30 | 162 | 0.0 | 0.0 | 0.18 | 1.27 | 1.40 | 71 | 1009.3 |
| 20260903190107 | 30 | 173 | 0.0 | 9.7 | 0.10 | 1.40 | 1.40 | 70 | 1009.4 |
| 20260903185704 | 30 | 65 | 0.0 | 0.0 | 0.28 | 1.27 | 1.40 | 71 | 1009.2 |
| 20260903185506 | 30 | 166 | 0.0 | 0.0 | 0.51 | 1.27 | 1.40 | 70 | 1009.2 |
| 20260903185307 | 30 | 206 | 0.0 | 0.0 | 0.51 | 1.27 | 1.40 | 70 | 1009.2 |
| 20260903185203 | 30 | 179 | 0.0 | 0.0 | 0.51 | 1.27 | 1.40 | 69 | 1009.3 |
| 20260903185104 | 30 | 166 | 0.0 | 0.0 | 0.56 | 1.27 | 1.40 | 70 | 1009.3 |
| 20260903184904 | 30 | 221 | 0.0 | 0.0 | 0.61 | 1.27 | 1.40 | 70 | 1009.4 |
| 20260903184717 | 29 | 190 | 0.0 | 0.0 | 0.66 | 1.27 | 1.40 | 72 | 1009.4 |
| 20260903184706 | 30 | 178 | 0.0 | 0.0 | 0.64 | 1.27 | 1.40 | 73 | 1009.4 |
| 20260903184305 | 29 | 200 | 0.0 | 0.0 | 0.76 | 1.27 | 1.40 | 72 | 1009.4 |
| 20260903184203 | 29 | 168 | 0.0 | 0.0 | 0.79 | 1.27 | 1.40 | 72 | 1009.4 |
| 20260903184106 | 29 | 186 | 0.0 | 0.0 | 0.79 | 1.27 | 1.40 | 73 | 1009.4 |
| 20260903183906 | 29 | 159 | 0.0 | 0.0 | 0.79 | 1.27 | 1.40 | 73 | 1009.4 |
| 20260903183704 | 29 | 176 | 0.0 | 0.0 | 0.79 | 1.27 | 1.40 | 75 | 1009.4 |
| 20260903183505 | 29 | 220 | 0.0 | 0.0 | 0.79 | 1.27 | 1.40 | 76 | 1009.4 |
| 20260903183314 | 28 | 157 | 0.0 | 0.0 | 0.79 | 1.27 | 1.40 | 76 | 1009.4 |
| 20260903183306 | 28 | 154 | 0.0 | 0.0 | 0.79 | 1.27 | 1.40 | 75 | 1009.5 |
| 20260903183206 | 28 | 203 | 0.0 | 0.0 | 0.79 | 1.27 | 1.40 | 76 | 1009.5 |
| 20260903182905 | 28 | 200 | 0.0 | 0.0 | 0.79 | 1.27 | 1.40 | 78 | 1009.5 |
| 20260903182704 | 28 | 154 | 0.0 | 0.0 | 0.79 | 1.27 | 1.40 | 81 | 1009.4 |
| 20260903182505 | 28 | 185 | 0.0 | 0.0 | 0.79 | 1.27 | 1.40 | 84 | 1009.4 |
| 20260903182307 | 27 | 196 | 0.0 | 0.0 | 0.79 | 1.27 | 1.40 | 82 | 1009.4 |
| 20260903182208 | 27 | 162 | 0.0 | 0.0 | 0.79 | 1.27 | 1.40 | 84 | 1009.5 |
| 20260903182203 | 27 | 159 | 0.0 | 0.0 | 0.79 | 1.27 | 1.40 | 84 | 1009.4 |
| 20260903181906 | 26 | 176 | 0.0 | 0.0 | 0.79 | 1.27 | 1.40 | 85 | 1009.5 |
| 20260903181704 | 26 | 176 | 0.0 | 0.0 | 0.79 | 1.27 | 1.40 | 87 | 1009.5 |
| 20260903181504 | 26 | 171 | 0.0 | 0.0 | 0.79 | 1.27 | 1.40 | 86 | 1009.5 |
| 20260903181404 | 25 | 169 | 0.0 | 0.0 | 0.79 | 1.27 | 1.40 | 87 | 1009.6 |
| 20260903181203 | 25 | 169 | 0.0 | 0.0 | 0.79 | 1.27 | 1.40 | 87 | 1009.7 |
| 20260903181104 | 25 | 147 | 0.0 | 0.0 | 0.79 | 1.27 | 1.40 | 87 | 1009.6 |
| 20260903180905 | 25 | 154 | 0.0 | 0.0 | 0.76 | 1.27 | 1.37 | 88 | 1009.8 |
| 20260903180809 | 25 | 164 | 0.0 | 0.0 | 0.76 | 1.27 | 1.37 | 88 | 1009.7 |
| 20260903180704 | 25 | 164 | 0.0 | 0.0 | 0.76 | 1.27 | 1.37 | 88 | 1009.7 |
| 20260903180504 | 25 | 193 | 0.0 | 0.0 | 0.76 | 1.27 | 1.37 | 88 | 1009.9 |
| 20260903180308 | 25 | 196 | 0.0 | 0.0 | 0.76 | 1.27 | 1.32 | 88 | 1009.8 |
| 20260903180203 | 25 | 25 | 0.0 | 0.0 | 0.71 | 1.27 | 1.30 | 88 | 1009.9 |
| 20260903180104 | 25 | 27 | 0.0 | 0.0 | 0.69 | 1.27 | 1.27 | 87 | 1009.8 |
| 20260903180005 | 25 | 180 | 0.0 | 0.0 | 0.61 | 0.61 | 0.74 | 87 | 1009.7 |
| 20260903175704 | 25 | 178 | 0.0 | 0.0 | 0.51 | 0.61 | 0.64 | 86 | 1009.8 |
| 20260903175506 | 26 | 157 | 0.0 | 0.0 | 0.30 | 0.61 | 0.41 | 85 | 1009.6 |
| 20260903175405 | 26 | 157 | 0.0 | 0.0 | 0.30 | 0.61 | 0.41 | 85 | 1009.5 |
| 20260903175203 | 26 | 157 | 0.0 | 0.0 | 0.33 | 0.61 | 0.41 | 85 | 1009.4 |
| 20260903175105 | 26 | 196 | 0.0 | 0.0 | 0.28 | 0.61 | 0.38 | 85 | 1009.4 |
| 20260903174905 | 26 | 207 | 0.0 | 0.0 | 0.23 | 0.61 | 0.33 | 84 | 1009.2 |
| 20260903174704 | 26 | 189 | 0.0 | 0.0 | 0.20 | 0.61 | 0.30 | 84 | 1009.1 |
| 20260903174604 | 26 | 157 | 0.0 | 0.0 | 0.18 | 0.61 | 0.28 | 84 | 1009.2 |
| 20260903174307 | 26 | 168 | 0.0 | 0.0 | 0.08 | 0.61 | 0.18 | 84 | 1009.4 |
| 20260903174203 | 26 | 182 | 0.0 | 0.0 | 0.05 | 0.61 | 0.18 | 84 | 1009.3 |
| 20260903174104 | 27 | 41 | 0.0 | 0.0 | 0.08 | 0.61 | 0.18 | 85 | 1009.2 |
| 20260903173904 | 27 | 171 | 0.0 | 0.0 | 0.18 | 0.61 | 0.18 | 85 | 1009.4 |
| 20260903173705 | 27 | 169 | 0.0 | 0.0 | 0.20 | 0.61 | 0.18 | 85 | 1009.7 |
| 20260903173606 | 27 | 166 | 0.0 | 0.0 | 0.23 | 0.61 | 0.18 | 87 | 1009.7 |
| 20260903173304 | 27 | 161 | 0.0 | 0.0 | 0.28 | 0.61 | 0.18 | 87 | 1009.7 |
| 20260903173210 | 27 | 110 | 0.0 | 0.0 | 0.33 | 0.61 | 0.18 | 90 | 1009.8 |
| 20260903173203 | 27 | 149 | 0.0 | 0.0 | 0.33 | 0.61 | 0.18 | 89 | 1009.8 |
| 20260903172906 | 27 | 111 | 0.0 | 0.0 | 0.36 | 0.61 | 0.18 | 90 | 1009.7 |
| 20260903172705 | 26 | 107 | 0.0 | 0.0 | 0.38 | 0.61 | 0.18 | 91 | 1009.8 |
| 20260903172506 | 26 | 47 | 0.0 | 0.0 | 0.41 | 0.61 | 0.18 | 93 | 1009.7 |
| 20260903172312 | 26 | 45 | 0.0 | 0.0 | 0.43 | 0.61 | 0.18 | 92 | 1009.7 |
| 20260903172211 | 26 | 47 | 0.0 | 0.0 | 0.43 | 0.61 | 0.18 | 92 | 1009.7 |
| 20260903172204 | 26 | 45 | 0.0 | 0.0 | 0.43 | 0.61 | 0.18 | 93 | 1009.8 |
| 20260903171904 | 25 | 47 | 0.0 | 0.0 | 0.43 | 0.61 | 0.18 | 93 | 1009.8 |
| 20260903171807 | 25 | 47 | 0.0 | 0.0 | 0.43 | 0.61 | 0.18 | 94 | 1009.8 |
| 20260903171704 | 25 | 47 | 0.0 | 0.0 | 0.43 | 0.61 | 0.18 | 94 | 1009.8 |
| 20260903171504 | 25 | 45 | 0.0 | 0.0 | 0.43 | 0.61 | 0.18 | 94 | 1009.9 |
| 20260903171304 | 25 | 39 | 0.0 | 0.0 | 0.43 | 0.61 | 0.18 | 94 | 1009.9 |
| 20260903171205 | 24 | 39 | 0.0 | 0.0 | 0.43 | 0.61 | 0.18 | 94 | 1010.0 |
| 20260903171104 | 24 | 41 | 0.0 | 0.0 | 0.43 | 0.61 | 0.18 | 94 | 1010.0 |
| 20260903170905 | 25 | 39 | 0.0 | 0.0 | 0.43 | 0.61 | 0.18 | 95 | 1009.9 |
| 20260903170808 | 24 | 39 | 0.0 | 0.0 | 0.43 | 0.61 | 0.18 | 94 | 1010.1 |
| 20260903170704 | 24 | 39 | 0.0 | 0.0 | 0.43 | 0.61 | 0.18 | 94 | 1010.1 |
| 20260903170509 | 24 | 41 | 0.0 | 0.0 | 0.43 | 0.61 | 0.61 | 92 | 1010.2 |
| 20260903170305 | 24 | 41 | 0.0 | 0.0 | 0.43 | 0.61 | 0.61 | 92 | 1010.1 |
| 20260903170205 | 24 | 41 | 0.0 | 0.0 | 0.43 | 0.61 | 0.61 | 92 | 1010.2 |
| 20260903170106 | 24 | 41 | 0.0 | 0.0 | 0.43 | 0.61 | 0.61 | 92 | 1010.2 |
| 20260903165930 | 24 | 41 | 0.0 | 0.0 | 0.43 | 0.18 | 0.61 | 92 | 1010.3 |
| 20260903165734 | 24 | 41 | 0.0 | 0.0 | 0.43 | 0.18 | 0.61 | 91 | 1010.4 |
| 20260903165703 | 24 | 41 | 0.0 | 0.0 | 0.43 | 0.18 | 0.61 | 92 | 1010.3 |
| 20260903165507 | 25 | 41 | 0.0 | 0.0 | 0.38 | 0.18 | 0.56 | 90 | 1010.4 |
| 20260903165454 | 24 | 41 | 0.0 | 0.0 | 0.41 | 0.18 | 0.58 | 91 | 1010.5 |
| 20260903165422 | 24 | 41 | 0.0 | 0.0 | 0.38 | 0.18 | 0.56 | 91 | 1010.4 |
| 20260903165034 | 25 | 44 | 0.0 | 0.0 | 0.38 | 0.18 | 0.56 | 90 | 1010.3 |
| 20260903164834 | 25 | 44 | 0.0 | 0.0 | 0.38 | 0.18 | 0.56 | 90 | 1010.2 |
| 20260903164700 | 25 | 51 | 0.0 | 0.0 | 0.38 | 0.18 | 0.56 | 89 | 1010.1 |
| 20260903164608 | 25 | 52 | 0.0 | 0.0 | 0.38 | 0.18 | 0.56 | 89 | 1010.2 |
| 20260903164504 | 25 | 93 | 0.0 | 0.0 | 0.38 | 0.18 | 0.56 | 89 | 1010.1 |
| 20260903164309 | 25 | 47 | 0.0 | 0.0 | 0.38 | 0.18 | 0.53 | 88 | 1010.1 |
| 20260903164159 | 25 | 47 | 0.0 | 0.0 | 0.38 | 0.18 | 0.53 | 88 | 1010.1 |
| 20260903164008 | 25 | 51 | 0.0 | 0.0 | 0.33 | 0.18 | 0.51 | 88 | 1010.2 |
| 20260903163808 | 25 | 32 | 0.0 | 0.0 | 0.25 | 0.18 | 0.41 | 87 | 1010.2 |
| 20260903163700 | 25 | 37 | 0.0 | 0.0 | 0.23 | 0.18 | 0.41 | 87 | 1010.2 |
| 20260903163605 | 25 | 8 | 0.0 | 0.0 | 0.23 | 0.18 | 0.38 | 86 | 1010.2 |
| 20260903163405 | 26 | 120 | 0.0 | 0.0 | 0.18 | 0.18 | 0.33 | 86 | 1010.3 |
| 20260903163207 | 26 | 133 | 0.0 | 0.0 | 0.10 | 0.18 | 0.28 | 86 | 1010.5 |
| 20260903163159 | 26 | 133 | 0.0 | 0.0 | 0.10 | 0.18 | 0.28 | 86 | 1010.5 |
| 20260903163106 | 26 | 133 | 0.0 | 0.0 | 0.08 | 0.18 | 0.25 | 86 | 1010.5 |
| 20260903162804 | 26 | 133 | 0.0 | 0.0 | 0.08 | 0.18 | 0.23 | 86 | 1010.4 |
| 20260903162658 | 26 | 131 | 0.0 | 0.0 | 0.05 | 0.18 | 0.23 | 85 | 1010.5 |
| 20260903162611 | 26 | 131 | 0.0 | 0.0 | 0.05 | 0.18 | 0.20 | 85 | 1010.5 |
| 20260903162403 | 26 | 131 | 0.0 | 0.0 | 0.03 | 0.18 | 0.18 | 85 | 1010.5 |
| 20260903162206 | 26 | 134 | 0.0 | 0.0 | 0.00 | 0.18 | 0.18 | 84 | 1010.2 |
| 20260903162201 | 26 | 133 | 0.0 | 0.0 | 0.00 | 0.18 | 0.18 | 84 | 1010.2 |
| 20260903162002 | 26 | 155 | 0.0 | 0.0 | 0.00 | 0.18 | 0.18 | 84 | 1010.2 |
| 20260903161805 | 26 | 155 | 0.0 | 0.0 | 0.00 | 0.18 | 0.18 | 84 | 1010.2 |
| 20260903161706 | 26 | 157 | 0.0 | 0.0 | 0.00 | 0.18 | 0.18 | 84 | 1010.3 |
| 20260903161702 | 26 | 155 | 0.0 | 0.0 | 0.00 | 0.18 | 0.18 | 84 | 1010.3 |
| 20260903161500 | 26 | 155 | 0.0 | 0.0 | 0.00 | 0.18 | 0.18 | 84 | 1010.3 |
| 20260903161206 | 26 | 157 | 0.0 | 0.0 | 0.00 | 0.18 | 0.18 | 84 | 1010.2 |
| 20260903161201 | 26 | 157 | 0.0 | 0.0 | 0.00 | 0.18 | 0.18 | 84 | 1010.3 |
| 20260903161002 | 26 | 155 | 0.0 | 0.0 | 0.00 | 0.18 | 0.18 | 84 | 1010.3 |
| 20260903160951 | 26 | 158 | 0.0 | 0.0 | 0.00 | 0.18 | 0.18 | 84 | 1010.4 |
| 20260903160923 | 26 | 157 | 0.0 | 0.0 | 0.00 | 0.18 | 0.18 | 84 | 1010.3 |
| 20260903160617 | 26 | 157 | 0.0 | 0.0 | 0.00 | 0.18 | 0.18 | 84 | 1010.4 |
| 20260903160408 | 26 | 155 | 0.0 | 0.0 | 0.00 | 0.18 | 0.18 | 84 | 1010.4 |
| 20260903160306 | 26 | 20 | 0.0 | 0.0 | 0.00 | 0.18 | 0.18 | 86 | 1010.4 |
| 20260903160151 | 26 | 20 | 0.0 | 0.0 | 0.00 | 0.18 | 0.18 | 86 | 1010.4 |
| 20260903160111 | 26 | 20 | 0.0 | 0.0 | 0.00 | 0.18 | 0.18 | 86 | 1010.3 |
| 20260903155935 | 25 | 161 | 0.0 | 0.0 | 0.00 | 0.18 | 0.18 | 86 | 1010.3 |
| 20260903155916 | 25 | 35 | 0.0 | 0.0 | 0.00 | 0.18 | 0.18 | 86 | 1010.3 |
| 20260903155553 | 25 | 94 | 0.0 | 0.0 | 0.00 | 0.18 | 0.18 | 85 | 1010.4 |
| 20260903155351 | 25 | 16 | 0.0 | 0.0 | 0.00 | 0.18 | 0.18 | 86 | 1010.3 |
| 20260903155151 | 25 | 0 | 0.0 | 0.0 | 0.00 | 0.18 | 0.18 | 85 | 1010.4 |
| 20260903155107 | 25 | 166 | 0.0 | 0.0 | 0.00 | 0.18 | 0.18 | 85 | 1010.2 |
| 20260903155059 | 25 | 166 | 0.0 | 0.0 | 0.00 | 0.18 | 0.18 | 85 | 1010.2 |
| 20260903155042 | 25 | 331 | 0.0 | 0.0 | 0.00 | 0.18 | 0.18 | 85 | 1010.3 |
| 20260903154643 | 25 | 155 | 0.0 | 0.0 | 0.00 | 0.18 | 0.18 | 85 | 1010.3 |
| 20260903154348 | 25 | 157 | 0.0 | 0.0 | 0.00 | 0.18 | 0.18 | 85 | 1010.2 |
| 20260903154146 | 25 | 128 | 0.0 | 0.0 | 0.00 | 0.18 | 0.18 | 85 | 1010.3 |
| 20260903154014 | 25 | 38 | 0.0 | 0.0 | 0.00 | 0.18 | 0.18 | 86 | 1010.2 |
| 20260903153948 | 25 | 137 | 0.0 | 0.0 | 0.00 | 0.18 | 0.18 | 86 | 1010.3 |
| 20260903153943 | 25 | 37 | 0.0 | 0.0 | 0.00 | 0.18 | 0.18 | 86 | 1010.3 |
| 20260903153544 | 25 | 37 | 0.0 | 0.0 | 0.00 | 0.18 | 0.18 | 86 | 1010.2 |
| 20260903153443 | 25 | 35 | 0.0 | 0.0 | 0.00 | 0.18 | 0.18 | 86 | 1010.2 |
| 20260903153140 | 25 | 35 | 0.0 | 0.0 | 0.00 | 0.18 | 0.18 | 86 | 1010.3 |
| 20260903153134 | 25 | 38 | 0.0 | 0.0 | 0.00 | 0.18 | 0.18 | 86 | 1010.3 |
| 20260903152938 | 25 | 144 | 0.0 | 0.0 | 0.00 | 0.18 | 0.18 | 87 | 1010.3 |
| 20260903152740 | 25 | 142 | 0.0 | 0.0 | 0.00 | 0.18 | 0.18 | 87 | 1010.2 |
| 20260903152633 | 25 | 142 | 0.0 | 0.0 | 0.00 | 0.18 | 0.18 | 87 | 1010.2 |
| 20260903152536 | 25 | 145 | 0.0 | 0.0 | 0.00 | 0.18 | 0.18 | 87 | 1010.2 |
| 20260903152445 | 25 | 37 | 0.0 | 0.0 | 0.00 | 0.18 | 0.18 | 88 | 1010.2 |
| 20260903152134 | 25 | 42 | 0.0 | 0.0 | 0.00 | 0.18 | 0.18 | 89 | 1010.2 |
| 20260903152030 | 25 | 41 | 0.0 | 0.0 | 0.00 | 0.18 | 0.18 | 89 | 1010.3 |
| 20260903151738 | 25 | 42 | 0.0 | 0.0 | 0.00 | 0.18 | 0.18 | 89 | 1010.2 |
| 20260903151631 | 24 | 42 | 0.0 | 0.0 | 0.00 | 0.18 | 0.18 | 88 | 1010.2 |
| 20260903151532 | 24 | 41 | 0.0 | 0.0 | 0.00 | 0.18 | 0.18 | 88 | 1010.2 |
| 20260903151350 | 24 | 49 | 0.0 | 0.0 | 0.00 | 0.18 | 0.18 | 88 | 1010.3 |
| 20260903151135 | 24 | 44 | 0.0 | 0.0 | 0.00 | 0.18 | 0.18 | 88 | 1010.3 |
| 20260903151048 | 24 | 44 | 0.0 | 0.0 | 0.00 | 0.18 | 0.18 | 88 | 1010.3 |
| 20260903150742 | 24 | 55 | 0.0 | 0.0 | 0.00 | 0.18 | 0.18 | 88 | 1010.3 |
| 20260903150623 | 24 | 54 | 0.0 | 0.0 | 0.00 | 0.18 | 0.18 | 88 | 1010.3 |
| 20260903150531 | 24 | 54 | 0.0 | 0.0 | 0.00 | 0.18 | 0.18 | 88 | 1010.3 |
| 20260903150446 | 24 | 39 | 0.0 | 0.0 | 0.00 | 0.18 | 0.18 | 88 | 1010.3 |
| 20260903150130 | 24 | 41 | 0.0 | 0.0 | 0.00 | 0.18 | 0.18 | 87 | 1010.4 |
| 20260903150124 | 24 | 39 | 0.0 | 0.0 | 0.00 | 0.18 | 0.18 | 87 | 1010.4 |
| 20260903145930 | 24 | 42 | 0.0 | 0.0 | 0.00 | 0.18 | 0.18 | 87 | 1010.3 |
| 20260903145730 | 24 | 44 | 0.0 | 0.0 | 0.00 | 0.18 | 0.18 | 87 | 1010.3 |
| 20260903145621 | 24 | 42 | 0.0 | 0.0 | 0.00 | 0.18 | 0.18 | 87 | 1010.3 |
| 20260903145532 | 24 | 41 | 0.0 | 0.0 | 0.00 | 0.18 | 0.18 | 87 | 1010.3 |
| 20260903145430 | 24 | 42 | 0.0 | 0.0 | 0.00 | 0.18 | 0.18 | 87 | 1010.2 |
| 20260903145131 | 24 | 41 | 0.0 | 0.0 | 0.00 | 0.18 | 0.18 | 87 | 1010.2 |
| 20260903145120 | 24 | 42 | 0.0 | 0.0 | 0.00 | 0.18 | 0.18 | 87 | 1010.2 |
| 20260903145029 | 24 | 42 | 0.0 | 0.0 | 0.00 | 0.18 | 0.18 | 87 | 1010.1 |
| 20260903144729 | 24 | 41 | 0.0 | 0.0 | 0.00 | 0.18 | 0.18 | 87 | 1010.1 |
| 20260903144621 | 24 | 38 | 0.0 | 0.0 | 0.00 | 0.18 | 0.18 | 87 | 1010.2 |
| 20260903144529 | 24 | 41 | 0.0 | 0.0 | 0.00 | 0.18 | 0.18 | 87 | 1010.2 |
| 20260903144326 | 24 | 38 | 0.0 | 0.0 | 0.00 | 0.18 | 0.18 | 86 | 1010.3 |
| 20260903144126 | 24 | 38 | 0.0 | 0.0 | 0.00 | 0.18 | 0.18 | 86 | 1010.3 |
| 20260903144118 | 24 | 37 | 0.0 | 0.0 | 0.00 | 0.18 | 0.18 | 86 | 1010.3 |
| 20260903144024 | 24 | 35 | 0.0 | 0.0 | 0.00 | 0.18 | 0.18 | 86 | 1010.2 |
| 20260903143721 | 24 | 38 | 0.0 | 0.0 | 0.00 | 0.18 | 0.18 | 86 | 1010.1 |
| 20260903143624 | 24 | 23 | 0.0 | 0.0 | 0.00 | 0.18 | 0.18 | 86 | 1010.0 |
| 20260903143617 | 24 | 37 | 0.0 | 0.0 | 0.00 | 0.18 | 0.18 | 86 | 1010.1 |
| 20260903143322 | 24 | 31 | 0.0 | 0.0 | 0.00 | 0.18 | 0.18 | 86 | 1010.1 |
| 20260903143119 | 24 | 27 | 0.0 | 0.0 | 0.00 | 0.18 | 0.18 | 86 | 1010.2 |
| 20260903142920 | 24 | 25 | 0.0 | 0.0 | 0.00 | 0.18 | 0.18 | 86 | 1010.2 |
| 20260903142719 | 24 | 25 | 0.0 | 0.0 | 0.00 | 0.18 | 0.18 | 86 | 1010.1 |
| 20260903142622 | 24 | 48 | 0.0 | 0.0 | 0.00 | 0.18 | 0.18 | 86 | 1010.0 |
| 20260903142617 | 24 | 27 | 0.0 | 0.0 | 0.00 | 0.18 | 0.18 | 86 | 1010.0 |
| 20260903142421 | 24 | 39 | 0.0 | 0.0 | 0.00 | 0.18 | 0.18 | 87 | 1009.9 |
| 20260903142120 | 24 | 32 | 0.0 | 0.0 | 0.00 | 0.18 | 0.18 | 87 | 1010.0 |
| 20260903142115 | 24 | 34 | 0.0 | 0.0 | 0.00 | 0.18 | 0.18 | 87 | 1010.0 |
| 20260903142013 | 24 | 32 | 0.0 | 0.0 | 0.00 | 0.18 | 0.18 | 87 | 1010.2 |
| 20260903141718 | 24 | 34 | 0.0 | 0.0 | 0.00 | 0.18 | 0.18 | 87 | 1010.0 |
| 20260903141615 | 24 | 62 | 0.0 | 0.0 | 0.00 | 0.18 | 0.18 | 87 | 1010.1 |
| 20260903141520 | 24 | 61 | 0.0 | 0.0 | 0.00 | 0.18 | 0.18 | 88 | 1010.1 |
| 20260903141416 | 24 | 31 | 0.0 | 0.0 | 0.00 | 0.18 | 0.18 | 88 | 1010.1 |
| 20260903141357 | 24 | 45 | 0.0 | 0.0 | 0.00 | 0.18 | 0.18 | 88 | 1010.1 |
| 20260903141105 | 24 | 31 | 0.0 | 0.0 | 0.00 | 0.18 | 0.18 | 88 | 1010.1 |
| 20260903141003 | 23 | 51 | 0.0 | 0.0 | 0.00 | 0.18 | 0.18 | 88 | 1010.1 |
| 20260903140705 | 23 | 49 | 0.0 | 0.0 | 0.00 | 0.18 | 0.18 | 87 | 1010.2 |
| 20260903140614 | 23 | 49 | 0.0 | 0.0 | 0.00 | 0.18 | 0.18 | 87 | 1010.2 |
| 20260903140607 | 23 | 51 | 0.0 | 0.0 | 0.00 | 0.18 | 0.18 | 87 | 1010.2 |
| 20260903140302 | 23 | 51 | 0.0 | 0.0 | 0.00 | 0.18 | 0.18 | 87 | 1010.3 |
| 20260903140121 | 23 | 48 | 0.0 | 0.0 | 0.00 | 0.18 | 0.18 | 87 | 1010.3 |
| 20260903140115 | 23 | 49 | 0.0 | 0.0 | 0.00 | 0.18 | 0.18 | 87 | 1010.3 |
| 20260903135902 | 23 | 49 | 0.0 | 0.0 | 0.00 | 0.18 | 0.18 | 87 | 1010.3 |
| 20260903135702 | 23 | 51 | 0.0 | 0.0 | 0.00 | 0.18 | 0.18 | 87 | 1010.4 |
| 20260903135612 | 23 | 49 | 0.0 | 0.0 | 0.00 | 0.18 | 0.18 | 87 | 1010.3 |
| 20260903135601 | 23 | 49 | 0.0 | 0.0 | 0.00 | 0.18 | 0.18 | 87 | 1010.3 |
| 20260903135306 | 24 | 49 | 0.0 | 0.0 | 0.00 | 0.18 | 0.18 | 88 | 1010.3 |
| 20260903135201 | 24 | 51 | 0.0 | 0.0 | 0.00 | 0.18 | 0.18 | 88 | 1010.1 |
| 20260903135112 | 24 | 51 | 0.0 | 0.0 | 0.00 | 0.18 | 0.18 | 88 | 1010.1 |
| 20260903134902 | 24 | 51 | 0.0 | 0.0 | 0.00 | 0.18 | 0.18 | 87 | 1010.2 |
| 20260903134704 | 24 | 48 | 0.0 | 0.0 | 0.00 | 0.18 | 0.18 | 87 | 1010.2 |
| 20260903134612 | 24 | 35 | 0.0 | 0.0 | 0.00 | 0.18 | 0.18 | 87 | 1010.1 |
| 20260903134505 | 24 | 34 | 0.0 | 0.0 | 0.00 | 0.18 | 0.18 | 87 | 1010.2 |
| 20260903134305 | 24 | 31 | 0.0 | 0.0 | 0.00 | 0.18 | 0.18 | 88 | 1010.1 |
| 20260903134113 | 24 | 39 | 0.0 | 0.0 | 0.00 | 0.18 | 0.18 | 88 | 1010.2 |
| 20260903134108 | 24 | 41 | 0.0 | 0.0 | 0.00 | 0.18 | 0.18 | 88 | 1010.2 |
| 20260903134006 | 24 | 58 | 0.0 | 0.0 | 0.00 | 0.18 | 0.18 | 88 | 1010.2 |
| 20260903133705 | 23 | 52 | 0.0 | 0.0 | 0.00 | 0.18 | 0.18 | 89 | 1010.2 |
| 20260903133610 | 23 | 54 | 0.0 | 0.0 | 0.00 | 0.18 | 0.18 | 89 | 1010.3 |
| 20260903133605 | 23 | 54 | 0.0 | 0.0 | 0.00 | 0.18 | 0.18 | 89 | 1010.3 |
| 20260903133304 | 23 | 109 | 0.0 | 0.0 | 0.00 | 0.18 | 0.18 | 89 | 1010.2 |
| 20260903133104 | 23 | 244 | 0.0 | 0.0 | 0.00 | 0.18 | 0.18 | 89 | 1010.2 |
| 20260903132903 | 23 | 247 | 0.0 | 0.0 | 0.00 | 0.18 | 0.18 | 90 | 1010.2 |
| 20260903132656 | 23 | 245 | 0.0 | 0.0 | 0.00 | 0.18 | 0.18 | 90 | 1010.2 |
| 20260903132611 | 23 | 245 | 0.0 | 0.0 | 0.00 | 0.18 | 0.18 | 90 | 1010.2 |
| 20260903132557 | 23 | 245 | 0.0 | 0.0 | 0.00 | 0.18 | 0.18 | 90 | 1010.2 |
| 20260903132411 | 23 | 245 | 0.0 | 0.0 | 0.00 | 0.18 | 0.18 | 90 | 1010.2 |
| 20260903132407 | 23 | 244 | 0.0 | 0.0 | 0.00 | 0.18 | 0.18 | 90 | 1010.2 |
| 20260903132349 | 23 | 244 | 0.0 | 0.0 | 0.00 | 0.18 | 0.18 | 90 | 1010.1 |
| 20260903131852 | 22 | 245 | 0.0 | 0.0 | 0.00 | 0.18 | 0.18 | 90 | 1010.2 |
| 20260903131651 | 22 | 245 | 0.0 | 0.0 | 0.00 | 0.18 | 0.18 | 90 | 1010.2 |
| 20260903131603 | 22 | 245 | 0.0 | 0.0 | 0.00 | 0.18 | 0.18 | 90 | 1010.2 |
| 20260903131451 | 22 | 245 | 0.0 | 0.0 | 0.00 | 0.18 | 0.18 | 90 | 1010.2 |
| 20260903131408 | 22 | 312 | 0.0 | 0.0 | 0.00 | 0.18 | 0.18 | 90 | 1010.2 |
| 20260903131404 | 22 | 314 | 0.0 | 0.0 | 0.00 | 0.18 | 0.18 | 90 | 1010.1 |
| 20260903131344 | 22 | 245 | 0.0 | 0.0 | 0.00 | 0.18 | 0.18 | 90 | 1010.2 |
| 20260903130850 | 22 | 162 | 0.0 | 0.0 | 0.00 | 0.18 | 0.18 | 90 | 1010.1 |
| 20260903130746 | 22 | 176 | 0.0 | 0.0 | 0.00 | 0.18 | 0.18 | 90 | 1010.1 |
| 20260903130604 | 22 | 178 | 0.0 | 0.0 | 0.00 | 0.18 | 0.18 | 90 | 1010.1 |
| 20260903130450 | 22 | 179 | 0.0 | 0.0 | 0.00 | 0.18 | 0.18 | 90 | 1010.2 |
| 20260903130426 | 22 | 183 | 0.0 | 0.0 | 0.00 | 0.18 | 0.18 | 90 | 1010.0 |
| 20260903130403 | 22 | 179 | 0.0 | 0.0 | 0.00 | 0.18 | 0.18 | 90 | 1010.1 |
| 20260903130047 | 22 | 180 | 0.0 | 0.0 | 0.00 | 0.18 | 0.18 | 90 | 1010.0 |
| 20260903125941 | 22 | 168 | 0.0 | 0.0 | 0.00 | 0.18 | 0.18 | 90 | 1009.9 |
| 20260903125644 | 22 | 154 | 0.0 | 0.0 | 0.00 | 0.18 | 0.18 | 91 | 1009.9 |
| 20260903125607 | 22 | 164 | 0.0 | 0.0 | 0.00 | 0.18 | 0.18 | 91 | 1009.9 |
| 20260903125541 | 22 | 171 | 0.0 | 0.0 | 0.00 | 0.18 | 0.18 | 91 | 1010.0 |
| 20260903125244 | 22 | 172 | 0.0 | 0.0 | 0.00 | 0.18 | 0.18 | 91 | 1010.0 |
| 20260903125103 | 22 | 175 | 0.0 | 0.0 | 0.00 | 0.18 | 0.18 | 91 | 1009.9 |
| 20260903125047 | 22 | 175 | 0.0 | 0.0 | 0.00 | 0.18 | 0.18 | 91 | 1010.0 |
| 20260903124839 | 22 | 219 | 0.0 | 0.0 | 0.00 | 0.18 | 0.18 | 91 | 1009.9 |
| 20260903124635 | 22 | 113 | 0.0 | 0.0 | 0.00 | 0.18 | 0.18 | 91 | 1010.0 |
| 20260903124607 | 22 | 161 | 0.0 | 0.0 | 0.00 | 0.18 | 0.18 | 91 | 1010.0 |
| 20260903124533 | 22 | 164 | 0.0 | 0.0 | 0.00 | 0.18 | 0.18 | 91 | 1010.0 |
| 20260903124407 | 22 | 145 | 0.0 | 0.0 | 0.00 | 0.18 | 0.18 | 92 | 1009.9 |
| 20260903124403 | 22 | 145 | 0.0 | 0.0 | 0.00 | 0.18 | 0.18 | 92 | 1009.9 |
| 20260903124339 | 22 | 148 | 0.0 | 0.0 | 0.00 | 0.18 | 0.18 | 92 | 1010.0 |
| 20260903123831 | 22 | 151 | 0.0 | 0.0 | 0.00 | 0.18 | 0.18 | 92 | 1010.0 |
| 20260903123603 | 22 | 152 | 0.0 | 0.0 | 0.00 | 0.18 | 0.18 | 92 | 1010.0 |
| 20260903123424 | 22 | 144 | 0.0 | 0.0 | 0.00 | 0.18 | 0.18 | 92 | 1010.1 |
| 20260903123410 | 22 | 190 | 0.0 | 0.0 | 0.00 | 0.18 | 0.18 | 92 | 1009.9 |
| 20260903123405 | 22 | 195 | 0.0 | 0.0 | 0.00 | 0.18 | 0.18 | 92 | 1009.9 |
| 20260903123343 | 22 | 141 | 0.0 | 0.0 | 0.00 | 0.18 | 0.18 | 92 | 1009.9 |
| 20260903122823 | 22 | 155 | 0.0 | 0.0 | 0.00 | 0.18 | 0.18 | 92 | 1009.9 |
| 20260903122722 | 22 | 188 | 0.0 | 0.0 | 0.03 | 0.18 | 0.18 | 93 | 1009.6 |
| 20260903122603 | 22 | 188 | 0.0 | 0.0 | 0.03 | 0.18 | 0.18 | 93 | 1009.6 |
| 20260903122422 | 22 | 200 | 0.0 | 0.0 | 0.08 | 0.18 | 0.18 | 93 | 1009.3 |
| 20260903122405 | 22 | 233 | 0.0 | 0.0 | 0.18 | 0.18 | 0.18 | 93 | 1009.2 |
| 20260903122339 | 22 | 231 | 0.0 | 0.0 | 0.18 | 0.18 | 0.18 | 93 | 1009.2 |
| 20260903122022 | 22 | 230 | 0.0 | 0.0 | 0.18 | 0.18 | 0.18 | 93 | 1009.2 |
| 20260903121822 | 22 | 347 | 0.0 | 0.0 | 0.18 | 0.18 | 0.18 | 93 | 1009.1 |
| 20260903121621 | 22 | 141 | 0.0 | 0.0 | 0.18 | 0.18 | 0.18 | 92 | 1009.2 |
| 20260903121601 | 22 | 158 | 0.0 | 0.0 | 0.18 | 0.18 | 0.18 | 92 | 1009.2 |
| 20260903121521 | 22 | 32 | 0.0 | 0.0 | 0.18 | 0.18 | 0.18 | 92 | 1009.3 |
| 20260903121223 | 22 | 168 | 0.0 | 0.0 | 0.18 | 0.18 | 0.18 | 92 | 1009.4 |
| 20260903121103 | 22 | 168 | 0.0 | 0.0 | 0.18 | 0.18 | 0.18 | 92 | 1009.4 |
| 20260903121004 | 22 | 168 | 0.0 | 0.0 | 0.18 | 0.18 | 0.18 | 92 | 1009.5 |
| 20260903120902 | 22 | 164 | 0.0 | 0.0 | 0.18 | 0.18 | 0.18 | 92 | 1009.7 |
| 20260903120601 | 22 | 44 | 0.0 | 0.0 | 0.18 | 0.18 | 0.18 | 92 | 1009.7 |
| 20260903120437 | 23 | 158 | 0.0 | 0.0 | 0.18 | 0.18 | 0.18 | 92 | 1009.6 |
| 20260903120431 | 23 | 164 | 0.0 | 0.0 | 0.18 | 0.00 | 0.18 | 92 | 1009.6 |
| 20260903120425 | 22 | 32 | 0.0 | 0.0 | 0.18 | 0.18 | 0.18 | 92 | 1009.5 |
| 20260903120352 | 23 | 158 | 0.0 | 0.0 | 0.18 | 0.18 | 0.18 | 92 | 1009.5 |
| 20260903115802 | 23 | 124 | 0.0 | 0.0 | 0.18 | 0.00 | 0.18 | 92 | 1009.7 |
| 20260903115610 | 23 | 155 | 0.0 | 0.0 | 0.00 | 0.00 | 0.18 | 92 | 1009.8 |
| 20260903115606 | 23 | 154 | 0.0 | 0.0 | 0.00 | 0.00 | 0.18 | 92 | 1009.8 |
| 20260903115508 | 23 | 155 | 0.0 | 0.0 | 0.00 | 0.00 | 0.18 | 92 | 1009.7 |
| 20260903115409 | 23 | 173 | 0.0 | 0.0 | 0.00 | 0.00 | 0.18 | 92 | 1009.7 |
| 20260903115337 | 23 | 173 | 0.0 | 0.0 | 0.00 | 0.00 | 0.18 | 92 | 1009.7 |
| 20260903115004 | 23 | 179 | 0.0 | 0.0 | 0.00 | 0.00 | 0.18 | 93 | 1009.7 |
| 20260903114804 | 23 | 180 | 0.0 | 0.0 | 0.00 | 0.00 | 0.18 | 93 | 1009.8 |
| 20260903114708 | 23 | 183 | 0.0 | 0.0 | 0.00 | 0.00 | 0.18 | 93 | 1010.0 |
| 20260903114606 | 23 | 185 | 0.0 | 0.0 | 0.00 | 0.00 | 0.18 | 93 | 1010.0 |
| 20260903114411 | 23 | 168 | 0.0 | 0.0 | 0.00 | 0.00 | 0.18 | 92 | 1010.0 |
| 20260903114405 | 23 | 180 | 0.0 | 0.0 | 0.00 | 0.00 | 0.18 | 92 | 1010.1 |
| 20260903114339 | 23 | 196 | 0.0 | 0.0 | 0.00 | 0.00 | 0.18 | 92 | 1010.0 |
| 20260903114005 | 23 | 168 | 0.0 | 0.0 | 0.00 | 0.00 | 0.18 | 92 | 1010.1 |
| 20260903113807 | 23 | 103 | 0.0 | 0.0 | 0.00 | 0.00 | 0.18 | 92 | 1010.1 |
| 20260903113615 | 23 | 171 | 0.0 | 0.0 | 0.00 | 0.00 | 0.18 | 92 | 1010.6 |
| 20260903113610 | 23 | 159 | 0.0 | 0.0 | 0.00 | 0.00 | 0.18 | 92 | 1010.4 |
| 20260903113604 | 23 | 159 | 0.0 | 0.0 | 0.00 | 0.00 | 0.18 | 92 | 1010.4 |
| 20260903113205 | 23 | 203 | 0.0 | 0.0 | 0.00 | 0.00 | 0.18 | 92 | 1010.4 |
| 20260903113103 | 23 | 227 | 0.0 | 0.0 | 0.00 | 0.00 | 0.18 | 92 | 1010.5 |
| 20260903113007 | 23 | 224 | 0.0 | 0.0 | 0.00 | 0.00 | 0.18 | 92 | 1010.5 |
| 20260903112803 | 23 | 186 | 0.0 | 0.0 | 0.00 | 0.00 | 0.15 | 92 | 1010.5 |
| 20260903112609 | 23 | 189 | 0.0 | 0.0 | 0.00 | 0.00 | 0.13 | 92 | 1010.7 |
| 20260903112604 | 23 | 189 | 0.0 | 0.0 | 0.00 | 0.00 | 0.13 | 92 | 1010.7 |
| 20260903112404 | 23 | 196 | 0.0 | 0.0 | 0.00 | 0.00 | 0.00 | 92 | 1010.7 |
| 20260903112209 | 23 | 197 | 0.0 | 4.8 | 0.00 | 0.00 | 0.00 | 93 | 1010.7 |
| 20260903112205 | 23 | 209 | 0.0 | 0.0 | 0.00 | 0.00 | 0.00 | 93 | 1010.7 |
| 20260903112105 | 23 | 209 | 0.0 | 0.0 | 0.00 | 0.00 | 0.00 | 93 | 1010.7 |
| 20260903111804 | 23 | 168 | 0.0 | 8.0 | 0.00 | 0.00 | 0.00 | 93 | 1010.6 |
| 20260903111605 | 23 | 207 | 0.0 | 8.0 | 0.00 | 0.00 | 0.00 | 94 | 1010.7 |
| 20260903111407 | 23 | 188 | 0.0 | 8.0 | 0.00 | 0.00 | 0.00 | 94 | 1010.6 |
| 20260903111205 | 23 | 169 | 0.0 | 8.0 | 0.00 | 0.00 | 0.00 | 94 | 1010.6 |
| 20260903111103 | 23 | 192 | 0.0 | 8.0 | 0.00 | 0.00 | 0.00 | 94 | 1010.6 |
| 20260903111003 | 23 | 192 | 0.0 | 8.0 | 0.00 | 0.00 | 0.00 | 94 | 1010.6 |
| 20260903110811 | 23 | 193 | 0.0 | 8.0 | 0.00 | 0.00 | 0.00 | 94 | 1010.3 |
| 20260903110805 | 23 | 193 | 0.0 | 8.0 | 0.00 | 0.00 | 0.00 | 94 | 1010.5 |
| 20260903110607 | 23 | 193 | 0.0 | 8.0 | 0.00 | 0.00 | 0.00 | 94 | 1010.3 |
| 20260903110403 | 23 | 207 | 0.0 | 8.0 | 0.00 | 0.00 | 0.00 | 94 | 1010.4 |
| 20260903110238 | 23 | 175 | 0.0 | 4.8 | 0.00 | 0.00 | 0.00 | 94 | 1010.3 |
| 20260903110203 | 23 | 220 | 0.0 | 4.8 | 0.00 | 0.00 | 0.00 | 94 | 1010.4 |
| 20260903110116 | 23 | 175 | 0.0 | 4.8 | 0.00 | 0.00 | 0.00 | 94 | 1010.3 |
| 20260903105803 | 23 | 173 | 0.0 | 3.2 | 0.00 | 0.00 | 0.00 | 94 | 1010.3 |
| 20260903105619 | -17 | 0.0 | 0.0 | 0.00 | 0.00 | 0.00 | 1010.3 | ||
| 20260903105334 | -17 | 0.0 | 0.0 | 0.00 | 0.00 | 0.00 | |||
| 20260903105114 | -17 | 0.0 | 0.0 | 0.00 | 0.00 | 0.00 | |||
| 20260903104907 | -17 | 0.0 | 0.0 | 0.00 | 0.00 | 0.00 | |||
| 20260903104707 | -17 | 0.0 | 0.0 | 0.00 | 0.00 | 0.00 | |||
| 20260903104639 | -17 | 0.0 | 0.0 | 0.00 | 0.00 | 0.00 | |||
| 20260903104439 | -17 | 0.0 | 0.0 | 0.00 | 0.00 | 0.00 | |||
| 20260903104236 | -17 | 0.0 | 0.0 | 0.00 | 0.00 | 0.00 | 1010.3 | ||
| 20260903104223 | -17 | 0.0 | 0.0 | 0.00 | 0.03 | 0.00 | 1010.3 | ||
| 20260903104159 | -17 | 0.0 | 0.0 | 0.00 | 0.00 | 0.00 | 1010.3 | ||
| 20260903103835 | -17 | 0.0 | 0.0 | 0.00 | 0.03 | 0.00 | 1010.3 | ||
| 20260903103608 | 23 | 165 | 0.0 | 3.2 | 0.00 | 0.05 | 0.00 | 95 | 1010.3 |
| 20260903103411 | 23 | 165 | 0.0 | 6.4 | 0.00 | 0.13 | 0.00 | 95 | 1010.3 |
| 20260903103246 | 23 | 165 | 0.0 | 9.7 | 0.00 | 0.36 | 0.00 | 95 | 1010.4 |
| 20260903103212 | 23 | 165 | 0.0 | 9.7 | 0.00 | 0.36 | 0.00 | 95 | 1010.5 |
| 20260903103124 | 23 | 165 | 0.0 | 9.7 | 0.00 | 0.36 | 0.00 | 95 | 1010.5 |
| 20260903102745 | 23 | 165 | 0.0 | 9.7 | 0.00 | 0.36 | 0.00 | 95 | 1010.4 |
| 20260903102543 | 23 | 169 | 0.0 | 9.7 | 0.00 | 0.36 | 0.00 | 95 | 1010.5 |
| 20260903102344 | 22 | 193 | 0.0 | 9.7 | 0.00 | 0.36 | 0.00 | 95 | 1010.5 |
| 20260903102204 | 22 | 171 | 0.0 | 8.0 | 0.00 | 0.36 | 0.00 | 95 | 1010.6 |
| 20260903102156 | 22 | 161 | 0.0 | 9.7 | 0.00 | 0.36 | 0.00 | 95 | 1010.5 |
| 20260903102113 | 22 | 176 | 0.0 | 8.0 | 0.00 | 0.36 | 0.00 | 95 | 1010.6 |
| 20260903101741 | 22 | 182 | 0.0 | 8.0 | 0.00 | 0.36 | 0.00 | 95 | 1010.4 |
| 20260903101539 | 22 | 175 | 0.0 | 6.4 | 0.00 | 0.36 | 0.00 | 95 | 1010.2 |
| 20260903101349 | 22 | 145 | 0.0 | 4.8 | 0.00 | 0.36 | 0.00 | 96 | 1010.2 |
| 20260903101340 | 22 | 141 | 0.0 | 4.8 | 0.00 | 0.36 | 0.00 | 96 | 1010.2 |
| 20260903101251 | 22 | 175 | 0.0 | 4.8 | 0.00 | 0.36 | 0.00 | 96 | 1010.0 |
| 20260903101201 | 22 | 195 | 0.0 | 4.8 | 0.00 | 0.36 | 0.00 | 96 | 1010.0 |
| 20260903101116 | 22 | 192 | 0.0 | 4.8 | 0.00 | 0.36 | 0.00 | 96 | 1010.0 |
| 20260903100837 | 22 | 197 | 0.0 | 4.8 | 0.00 | 0.36 | 0.00 | 96 | 1010.1 |
| 20260903100536 | 22 | 147 | 0.0 | 3.2 | 0.00 | 0.36 | 0.00 | 96 | 1010.2 |
| 20260903100347 | 22 | 149 | 0.0 | 3.2 | 0.00 | 0.36 | 0.00 | 96 | 1010.2 |
| 20260903100337 | 22 | 144 | 0.0 | 3.2 | 0.00 | 0.36 | 0.00 | 96 | 1010.1 |
| 20260903100139 | 22 | 142 | 0.0 | 1.6 | 0.00 | 0.36 | 0.00 | 96 | 1010.0 |
| 20260903095937 | 22 | 145 | 0.0 | 1.6 | 0.00 | 0.36 | 0.00 | 96 | 1010.2 |
| 20260903095909 | 22 | 144 | 0.0 | 3.2 | 0.00 | 0.36 | 0.00 | 96 | 1010.3 |
| 20260903095854 | 22 | 144 | 0.0 | 1.6 | 0.00 | 0.36 | 0.00 | 96 | 1010.2 |
| 20260903095711 | 22 | 183 | 0.0 | 4.8 | 0.00 | 0.36 | 0.00 | 96 | 1010.3 |
| 20260903095617 | 22 | 183 | 0.0 | 3.2 | 0.00 | 0.36 | 0.00 | 96 | 1010.2 |
| 20260903095122 | 22 | 182 | 0.0 | 4.8 | 0.00 | 0.36 | 0.00 | 96 | 1010.5 |
| 20260903094907 | 22 | 183 | 0.0 | 6.4 | 0.00 | 0.36 | 0.00 | 96 | 1010.4 |
| 20260903094838 | 22 | 185 | 0.0 | 6.4 | 0.00 | 0.36 | 0.00 | 96 | 1010.4 |
| 20260903094707 | 22 | 183 | 0.0 | 6.4 | 0.00 | 0.36 | 0.00 | 96 | 1010.4 |
| 20260903094651 | 22 | 183 | 0.0 | 6.4 | 0.00 | 0.36 | 0.00 | 96 | 1010.6 |
| 20260903094646 | 22 | 185 | 0.0 | 6.4 | 0.00 | 0.36 | 0.00 | 96 | 1010.6 |
| 20260903094618 | 22 | 185 | 0.0 | 6.4 | 0.00 | 0.36 | 0.00 | 96 | 1010.5 |
| 20260903094231 | 22 | 185 | 0.0 | 6.4 | 0.00 | 0.36 | 0.00 | 96 | 1010.5 |
| 20260903094139 | 22 | 193 | 0.0 | 4.8 | 0.00 | 0.36 | 0.00 | 96 | 1010.6 |
| 20260903093839 | 22 | 190 | 0.0 | 4.8 | 0.00 | 0.36 | 0.00 | 96 | 1010.6 |
| 20260903093707 | 22 | 171 | 0.0 | 4.8 | 0.00 | 0.36 | 0.00 | 96 | 1010.6 |
| 20260903093646 | 22 | 147 | 0.0 | 3.2 | 0.00 | 0.36 | 0.00 | 96 | 1010.4 |
| 20260903093611 | 22 | 147 | 0.0 | 3.2 | 0.00 | 0.36 | 0.00 | 96 | 1010.5 |
| 20260903093258 | 22 | 148 | 0.0 | 3.2 | 0.00 | 0.36 | 0.00 | 96 | 1010.4 |
| 20260903093101 | 22 | 123 | 0.0 | 3.2 | 0.00 | 0.36 | 0.00 | 96 | 1010.4 |
| 20260903092855 | 22 | 68 | 0.0 | 3.2 | 0.00 | 0.36 | 0.00 | 96 | 1010.3 |
| 20260903092842 | 22 | 66 | 0.0 | 3.2 | 0.00 | 0.36 | 0.00 | 96 | 1010.3 |
| 20260903092658 | 22 | 68 | 0.0 | 3.2 | 0.00 | 0.36 | 0.00 | 96 | 1010.3 |
| 20260903092652 | 22 | 68 | 0.0 | 3.2 | 0.00 | 0.36 | 0.00 | 96 | 1010.2 |
| 20260903092341 | 22 | 69 | 0.0 | 3.2 | 0.00 | 0.36 | 0.00 | 96 | 1010.2 |
| 20260903092249 | 22 | 68 | 0.0 | 3.2 | 0.00 | 0.36 | 0.00 | 97 | 1010.2 |
| 20260903092052 | 22 | 68 | 0.0 | 1.6 | 0.00 | 0.36 | 0.00 | 97 | 1010.3 |
| 20260903091850 | 22 | 68 | 0.0 | 1.6 | 0.00 | 0.36 | 0.00 | 97 | 1010.2 |
| 20260903091838 | 22 | 69 | 0.0 | 1.6 | 0.00 | 0.36 | 0.00 | 97 | 1010.2 |
| 20260903091650 | 22 | 69 | 0.0 | 1.6 | 0.00 | 0.36 | 0.00 | 97 | 1010.3 |
| 20260903091448 | 22 | 68 | 0.0 | 1.6 | 0.00 | 0.36 | 0.00 | 97 | 1010.2 |
| 20260903091348 | 22 | 69 | 0.0 | 1.6 | 0.00 | 0.36 | 0.00 | 97 | 1010.2 |
| 20260903091252 | 22 | 66 | 0.0 | 1.6 | 0.00 | 0.36 | 0.00 | 96 | 1010.2 |
| 20260903091246 | 22 | 68 | 0.0 | 1.6 | 0.00 | 0.36 | 0.00 | 96 | 1010.2 |
| 20260903090848 | 22 | 66 | 0.0 | 1.6 | 0.00 | 0.36 | 0.00 | 96 | 1010.0 |
| 20260903090834 | 22 | 68 | 0.0 | 1.6 | 0.00 | 0.36 | 0.00 | 96 | 1010.0 |
| 20260903090644 | 22 | 66 | 0.0 | 1.6 | 0.00 | 0.36 | 0.00 | 96 | 1010.0 |
| 20260903090443 | 22 | 65 | 0.0 | 1.6 | 0.00 | 0.36 | 0.00 | 96 | 1010.0 |
| 20260903090334 | 22 | 63 | 0.0 | 3.2 | 0.00 | 0.36 | 0.00 | 96 | 1009.9 |
| 20260903090242 | 22 | 63 | 0.0 | 3.2 | 0.00 | 0.36 | 0.00 | 96 | 1009.9 |
| 20260903090046 | 22 | 63 | 0.0 | 3.2 | 0.00 | 0.36 | 0.00 | 96 | 1009.9 |
| 20260903085834 | 22 | 63 | 0.0 | 3.2 | 0.00 | 0.36 | 0.00 | 96 | 1009.9 |
| 20260903085746 | 22 | 62 | 0.0 | 3.2 | 0.00 | 0.36 | 0.00 | 96 | 1009.9 |
| 20260903085440 | 22 | 63 | 0.0 | 3.2 | 0.00 | 0.36 | 0.00 | 96 | 1010.0 |
| 20260903085334 | 22 | 152 | 0.0 | 0.0 | 0.00 | 0.36 | 0.00 | 96 | 1010.1 |
| 20260903085240 | 22 | 154 | 0.0 | 0.0 | 0.00 | 0.36 | 0.00 | 97 | 1010.1 |
| 20260903085042 | 22 | 152 | 0.0 | 0.0 | 0.00 | 0.36 | 0.00 | 97 | 1010.0 |
| 20260903084833 | 22 | 152 | 0.0 | 0.0 | 0.00 | 0.36 | 0.00 | 96 | 1010.1 |
| 20260903084743 | 22 | 151 | 0.0 | 0.0 | 0.00 | 0.36 | 0.00 | 96 | 1010.0 |
| 20260903084438 | 22 | 152 | 0.0 | 0.0 | 0.00 | 0.36 | 0.00 | 96 | 1009.9 |
| 20260903084344 | 22 | 152 | 0.0 | 0.0 | 0.00 | 0.36 | 0.00 | 96 | 1009.9 |
| 20260903084332 | 22 | 152 | 0.0 | 0.0 | 0.00 | 0.36 | 0.00 | 96 | 1009.9 |
| 20260903084213 | 22 | 152 | 0.0 | 0.0 | 0.00 | 0.36 | 0.00 | 96 | 1010.0 |
| 20260903084148 | 22 | 152 | 0.0 | 0.0 | 0.00 | 0.36 | 0.00 | 96 | 1009.9 |
| 20260903084102 | 22 | 154 | 0.0 | 0.0 | 0.00 | 0.36 | 0.00 | 96 | 1010.0 |
| 20260903083637 | 22 | 152 | 0.0 | 0.0 | 0.00 | 0.36 | 0.00 | 96 | 1010.0 |
| 20260903083440 | 22 | 151 | 0.0 | 0.0 | 0.00 | 0.36 | 0.00 | 96 | 1010.0 |
| 20260903083345 | 22 | 152 | 0.0 | 0.0 | 0.00 | 0.36 | 0.00 | 96 | 1010.1 |
| 20260903083330 | 22 | 152 | 0.0 | 0.0 | 0.00 | 0.36 | 0.00 | 96 | 1010.1 |
| 20260903083210 | 22 | 154 | 0.0 | 3.2 | 0.00 | 0.36 | 0.00 | 96 | 1010.0 |
| 20260903083206 | 22 | 152 | 0.0 | 3.2 | 0.00 | 0.36 | 0.00 | 96 | 1010.0 |
| 20260903083146 | 22 | 152 | 0.0 | 3.2 | 0.00 | 0.36 | 0.00 | 96 | 1010.0 |
| 20260903082632 | 22 | 154 | 0.0 | 3.2 | 0.00 | 0.36 | 0.00 | 96 | 1010.0 |
| 20260903082432 | 22 | 154 | 0.0 | 3.2 | 0.00 | 0.36 | 0.00 | 96 | 1009.9 |
| 20260903082320 | 22 | 152 | 0.0 | 3.2 | 0.00 | 0.36 | 0.00 | 96 | 1010.0 |
| 20260903082230 | 22 | 152 | 0.0 | 3.2 | 0.00 | 0.36 | 0.00 | 96 | 1010.0 |
| 20260903082141 | 22 | 152 | 0.0 | 3.2 | 0.00 | 0.36 | 0.00 | 96 | 1010.0 |
| 20260903082121 | 22 | 152 | 0.0 | 3.2 | 0.00 | 0.36 | 0.00 | 96 | 1010.0 |
| 20260903082042 | 22 | 154 | 0.0 | 3.2 | 0.00 | 0.36 | 0.00 | 96 | 1010.0 |
| 20260903081627 | 22 | 152 | 0.0 | 3.2 | 0.00 | 0.36 | 0.00 | 96 | 1010.0 |
| 20260903081425 | 22 | 152 | 0.0 | 1.6 | 0.00 | 0.36 | 0.00 | 96 | 1010.0 |
| 20260903081317 | 22 | 152 | 0.0 | 1.6 | 0.00 | 0.36 | 0.00 | 96 | 1010.0 |
| 20260903081228 | 22 | 152 | 0.0 | 1.6 | 0.00 | 0.36 | 0.00 | 96 | 1010.1 |
| 20260903081222 | 22 | 152 | 0.0 | 1.6 | 0.00 | 0.36 | 0.00 | 96 | 1010.0 |
| 20260903081140 | 22 | 152 | 0.0 | 1.6 | 0.00 | 0.36 | 0.00 | 96 | 1010.2 |
| 20260903081034 | 22 | 152 | 0.0 | 1.6 | 0.00 | 0.36 | 0.00 | 96 | 1010.2 |
| 20260903080716 | 22 | 152 | 0.0 | 1.6 | 0.00 | 0.36 | 0.00 | 96 | 1010.2 |
| 20260903080420 | 22 | 152 | 0.0 | 1.6 | 0.00 | 0.36 | 0.00 | 96 | 1010.3 |
| 20260903080316 | 22 | 152 | 0.0 | 1.6 | 0.00 | 0.36 | 0.00 | 96 | 1010.2 |
| 20260903080213 | 22 | 152 | 0.0 | 1.6 | 0.00 | 0.36 | 0.00 | 96 | 1010.2 |
| 20260903080021 | 22 | 151 | 0.0 | 1.6 | 0.00 | 0.36 | 0.00 | 96 | 1010.2 |
| 20260903075821 | 22 | 152 | 0.0 | 1.6 | 0.00 | 0.36 | 0.00 | 96 | 1010.2 |
| 20260903075815 | 22 | 154 | 0.0 | 1.6 | 0.00 | 0.36 | 0.00 | 96 | 1010.2 |
| 20260903075715 | 22 | 152 | 0.0 | 1.6 | 0.00 | 0.36 | 0.00 | 96 | 1010.2 |
| 20260903075413 | 22 | 154 | 0.0 | 0.0 | 0.00 | 0.36 | 0.00 | 96 | 1010.3 |
| 20260903075325 | 22 | 152 | 0.0 | 0.0 | 0.00 | 0.36 | 0.00 | 96 | 1010.3 |
| 20260903075315 | 22 | 152 | 0.0 | 0.0 | 0.00 | 0.36 | 0.00 | 96 | 1010.3 |
| 20260903075032 | 22 | 152 | 0.0 | 0.0 | 0.00 | 0.36 | 0.00 | 96 | 1010.4 |
| 20260903074814 | 22 | 154 | 0.0 | 0.0 | 0.00 | 0.36 | 0.00 | 96 | 1010.3 |
| 20260903074806 | 22 | 152 | 0.0 | 0.0 | 0.00 | 0.36 | 0.00 | 96 | 1010.3 |
| 20260903074604 | 22 | 152 | 0.0 | 0.0 | 0.00 | 0.36 | 0.00 | 96 | 1010.3 |
| 20260903074351 | 22 | 152 | 0.0 | 0.0 | 0.00 | 0.36 | 0.00 | 96 | 1010.1 |
| 20260903074313 | 22 | 154 | 0.0 | 0.0 | 0.00 | 0.36 | 0.00 | 96 | 1010.2 |
| 20260903074246 | 22 | 152 | 0.0 | 0.0 | 0.00 | 0.36 | 0.00 | 96 | 1010.2 |
| 20260903073943 | 22 | 152 | 0.0 | 0.0 | 0.00 | 0.36 | 0.00 | 96 | 1010.2 |
| 20260903073845 | 22 | 152 | 0.0 | 0.0 | 0.00 | 0.36 | 0.00 | 96 | 1010.3 |
| 20260903073811 | 22 | 152 | 0.0 | 0.0 | 0.00 | 0.36 | 0.00 | 96 | 1010.3 |
| 20260903073641 | 22 | 152 | 0.0 | 0.0 | 0.00 | 0.36 | 0.00 | 96 | 1010.3 |
| 20260903073342 | 22 | 154 | 0.0 | 0.0 | 0.00 | 0.38 | 0.00 | 96 | 1010.3 |
| 20260903073312 | 22 | 152 | 0.0 | 0.0 | 0.00 | 0.38 | 0.00 | 96 | 1010.3 |
| 20260903073141 | 22 | 154 | 0.0 | 0.0 | 0.00 | 0.38 | 0.00 | 96 | 1010.3 |
| 20260903072941 | 22 | 151 | 0.0 | 0.0 | 0.00 | 0.38 | 0.00 | 96 | 1010.3 |
| 20260903072808 | 22 | 152 | 0.0 | 0.0 | 0.00 | 0.38 | 0.00 | 96 | 1010.4 |
| 20260903072741 | 22 | 152 | 0.0 | 0.0 | 0.00 | 0.38 | 0.00 | 96 | 1010.4 |
| 20260903072546 | 22 | 152 | 0.0 | 0.0 | 0.00 | 0.38 | 0.00 | 96 | 1010.5 |
| 20260903072540 | 22 | 152 | 0.0 | 0.0 | 0.00 | 0.38 | 0.00 | 96 | 1010.4 |
| 20260903072309 | 22 | 152 | 0.0 | 0.0 | 0.00 | 0.38 | 0.00 | 96 | 1010.5 |
| 20260903072139 | 22 | 152 | 0.0 | 0.0 | 0.00 | 0.38 | 0.00 | 96 | 1010.5 |
| 20260903072134 | 22 | 152 | 0.0 | 0.0 | 0.00 | 0.41 | 0.00 | 96 | 1010.5 |
| 20260903072043 | 22 | 152 | 0.0 | 0.0 | 0.00 | 0.41 | 0.00 | 96 | 1010.5 |
| 20260903071739 | 22 | 154 | 0.0 | 0.0 | 0.00 | 0.41 | 0.00 | 96 | 1010.5 |
| 20260903071539 | 22 | 152 | 0.0 | 0.0 | 0.00 | 0.41 | 0.00 | 96 | 1010.5 |
| 20260903071343 | 22 | 152 | 0.0 | 1.6 | 0.00 | 0.41 | 0.00 | 96 | 1010.6 |
| 20260903071309 | 22 | 152 | 0.0 | 1.6 | 0.00 | 0.41 | 0.00 | 96 | 1010.5 |
| 20260903071242 | 22 | 152 | 0.0 | 1.6 | 0.00 | 0.43 | 0.00 | 96 | 1010.5 |
| 20260903071150 | 22 | 152 | 0.0 | 1.6 | 0.00 | 0.43 | 0.00 | 96 | 1010.5 |
| 20260903071102 | 22 | 152 | 0.0 | 1.6 | 0.00 | 0.43 | 0.00 | 96 | 1010.5 |
| 20260903070742 | 22 | 151 | 0.0 | 1.6 | 0.00 | 0.43 | 0.00 | 96 | 1010.5 |
| 20260903070542 | 22 | 152 | 0.0 | 1.6 | 0.00 | 0.43 | 0.00 | 96 | 1010.4 |
| 20260903070343 | 22 | 152 | 0.0 | 3.2 | 0.00 | 0.43 | 0.00 | 96 | 1010.5 |
| 20260903070306 | 22 | 154 | 0.0 | 3.2 | 0.00 | 0.43 | 0.00 | 96 | 1010.6 |
| 20260903070143 | 22 | 152 | 0.0 | 3.2 | 0.00 | 0.43 | 0.00 | 96 | 1010.5 |
| 20260903070106 | 22 | 152 | 0.0 | 3.2 | 0.00 | 0.43 | 0.00 | 96 | 1010.4 |
| 20260903070050 | 22 | 152 | 0.0 | 3.2 | 0.00 | 0.43 | 0.00 | 96 | 1010.5 |
| 20260903065744 | 22 | 152 | 0.0 | 3.2 | 0.00 | 0.43 | 0.00 | 96 | 1010.4 |
| 20260903065643 | 22 | 152 | 0.0 | 3.2 | 0.00 | 0.43 | 0.00 | 96 | 1010.4 |
| 20260903065342 | 22 | 152 | 0.0 | 0.0 | 0.00 | 0.43 | 0.00 | 96 | 1010.4 |
| 20260903065306 | 22 | 152 | 0.0 | 0.0 | 0.00 | 0.43 | 0.00 | 96 | 1010.4 |
| 20260903065148 | 22 | 152 | 0.0 | 0.0 | 0.00 | 0.43 | 0.00 | 95 | 1010.5 |
| 20260903065143 | 22 | 152 | 0.0 | 0.0 | 0.00 | 0.43 | 0.00 | 96 | 1010.5 |
| 20260903064804 | 22 | 152 | 0.0 | 0.0 | 0.00 | 0.43 | 0.00 | 95 | 1010.4 |
| 20260903064743 | 22 | 152 | 0.0 | 0.0 | 0.00 | 0.43 | 0.00 | 95 | 1010.4 |
| 20260903064542 | 22 | 152 | 0.0 | 0.0 | 0.00 | 0.43 | 0.00 | 95 | 1010.6 |
| 20260903064337 | 22 | 152 | 0.0 | 0.0 | 0.00 | 0.43 | 0.00 | 95 | 1010.6 |
| 20260903064304 | 22 | 154 | 0.0 | 0.0 | 0.00 | 0.43 | 0.00 | 95 | 1010.6 |
| 20260903064135 | 22 | 154 | 0.0 | 0.0 | 0.00 | 0.43 | 0.00 | 95 | 1010.7 |
| 20260903063939 | 22 | 152 | 0.0 | 0.0 | 0.00 | 0.43 | 0.00 | 95 | 1010.6 |
| 20260903063803 | 22 | 152 | 0.0 | 0.0 | 0.00 | 0.46 | 0.00 | 96 | 1010.7 |
| 20260903063744 | 22 | 152 | 0.0 | 0.0 | 0.00 | 0.46 | 0.00 | 96 | 1010.6 |
| 20260903063734 | 22 | 152 | 0.0 | 0.0 | 0.00 | 0.46 | 0.00 | 96 | 1010.6 |
| 20260903063333 | 22 | 151 | 0.0 | 0.0 | 0.00 | 0.46 | 0.00 | 96 | 1010.7 |
| 20260903063304 | 22 | 152 | 0.0 | 0.0 | 0.00 | 0.46 | 0.00 | 96 | 1010.7 |
| 20260903063135 | 22 | 152 | 0.0 | 0.0 | 0.00 | 0.46 | 0.00 | 96 | 1010.6 |
| 20260903062934 | 22 | 152 | 0.0 | 0.0 | 0.00 | 0.48 | 0.00 | 96 | 1010.7 |
| 20260903062814 | 22 | 152 | 0.0 | 0.0 | 0.00 | 0.48 | 0.00 | 96 | 1010.6 |
| 20260903062732 | 22 | 154 | 0.0 | 0.0 | 0.00 | 0.48 | 0.00 | 95 | 1010.7 |
| 20260903062532 | 22 | 152 | 0.0 | 0.0 | 0.00 | 0.48 | 0.00 | 95 | 1010.7 |
| 20260903062332 | 22 | 151 | 0.0 | 0.0 | 0.00 | 0.48 | 0.00 | 95 | 1010.6 |
| 20260903062326 | 22 | 154 | 0.0 | 0.0 | 0.00 | 0.48 | 0.00 | 95 | 1010.7 |
| 20260903062301 | 22 | 152 | 0.0 | 0.0 | 0.00 | 0.48 | 0.00 | 95 | 1010.6 |
| 20260903061933 | 22 | 152 | 0.0 | 0.0 | 0.00 | 0.48 | 0.00 | 95 | 1010.7 |
| 20260903061800 | 22 | 154 | 0.0 | 0.0 | 0.00 | 0.48 | 0.00 | 95 | 1010.7 |
| 20260903061733 | 22 | 151 | 0.0 | 0.0 | 0.00 | 0.48 | 0.00 | 95 | 1010.7 |
| 20260903061534 | 22 | 151 | 0.0 | 0.0 | 0.00 | 0.48 | 0.00 | 95 | 1010.7 |
| 20260903061423 | 22 | 152 | 0.0 | 0.0 | 0.00 | 0.48 | 0.00 | 95 | 1010.7 |
| 20260903061259 | 22 | 154 | 0.0 | 0.0 | 0.00 | 0.48 | 0.00 | 95 | 1010.7 |
| 20260903061121 | 22 | 152 | 0.0 | 0.0 | 0.00 | 0.48 | 0.00 | 95 | 1010.7 |
| 20260903060919 | 22 | 152 | 0.0 | 0.0 | 0.00 | 0.48 | 0.00 | 95 | 1010.7 |
| 20260903060759 | 22 | 152 | 0.0 | 0.0 | 0.00 | 0.48 | 0.00 | 95 | 1010.7 |
| 20260903060718 | 22 | 151 | 0.0 | 0.0 | 0.00 | 0.48 | 0.00 | 95 | 1010.7 |
| 20260903060513 | 22 | 152 | 0.0 | 0.0 | 0.00 | 0.48 | 0.00 | 95 | 1010.7 |
| 20260903060312 | 22 | 152 | 0.0 | 0.0 | 0.00 | 0.48 | 0.00 | 95 | 1010.7 |
| 20260903060258 | 22 | 152 | 0.0 | 0.0 | 0.00 | 0.48 | 0.00 | 95 | 1010.7 |
| 20260903060213 | 22 | 152 | 0.0 | 0.0 | 0.00 | 0.48 | 0.00 | 95 | 1010.6 |
| 20260903060011 | 22 | 152 | 0.0 | 0.0 | 0.00 | 0.48 | 0.00 | 95 | 1010.6 |
| 20260903055758 | 22 | 154 | 0.0 | 0.0 | 0.00 | 0.48 | 0.00 | 95 | 1010.7 |
| 20260903055710 | 22 | 154 | 0.0 | 0.0 | 0.00 | 0.48 | 0.00 | 95 | 1010.6 |
| 20260903055554 | 22 | 154 | 0.0 | 0.0 | 0.00 | 0.48 | 0.00 | 95 | 1010.7 |
| 20260903055541 | 22 | 151 | 0.0 | 0.0 | 0.00 | 0.48 | 0.00 | 95 | 1010.6 |
| 20260903055508 | 22 | 152 | 0.0 | 0.0 | 0.00 | 0.48 | 0.00 | 95 | 1010.7 |
| 20260903055109 | 22 | 151 | 0.0 | 0.0 | 0.00 | 0.48 | 0.00 | 95 | 1010.7 |
| 20260903054908 | 22 | 152 | 0.0 | 0.0 | 0.00 | 0.48 | 0.00 | 95 | 1010.7 |
| 20260903054809 | 22 | 152 | 0.0 | 0.0 | 0.00 | 0.48 | 0.00 | 95 | 1010.7 |
| 20260903054744 | 22 | 151 | 0.0 | 0.0 | 0.00 | 0.48 | 0.00 | 95 | 1010.7 |
| 20260903054641 | 22 | 152 | 0.0 | 0.0 | 0.00 | 0.48 | 0.00 | 95 | 1010.7 |
| 20260903054547 | 22 | 152 | 0.0 | 0.0 | 0.00 | 0.48 | 0.00 | 95 | 1010.7 |
| 20260903054503 | 22 | 154 | 0.0 | 0.0 | 0.00 | 0.48 | 0.00 | 95 | 1010.7 |
| 20260903054104 | 22 | 152 | 0.0 | 0.0 | 0.00 | 0.48 | 0.00 | 95 | 1010.7 |
| 20260903053905 | 22 | 152 | 0.0 | 0.0 | 0.00 | 0.48 | 0.00 | 95 | 1010.7 |
| 20260903053741 | 22 | 151 | 0.0 | 0.0 | 0.00 | 0.48 | 0.00 | 95 | 1010.7 |
| 20260903053656 | 22 | 154 | 0.0 | 0.0 | 0.00 | 0.48 | 0.00 | 95 | 1010.7 |
| 20260903053541 | 22 | 152 | 0.0 | 0.0 | 0.00 | 0.48 | 0.00 | 94 | 1010.8 |
| 20260903053529 | 22 | 152 | 0.0 | 0.0 | 0.00 | 0.48 | 0.00 | 95 | 1010.6 |
| 20260903053459 | 22 | 152 | 0.0 | 0.0 | 0.00 | 0.48 | 0.00 | 94 | 1010.8 |
| 20260903053055 | 22 | 152 | 0.0 | 0.0 | 0.00 | 0.48 | 0.00 | 95 | 1010.7 |
| 20260903052951 | 22 | 152 | 0.0 | 0.0 | 0.00 | 0.48 | 0.00 | 95 | 1010.7 |
| 20260903052741 | 22 | 152 | 0.0 | 0.0 | 0.00 | 0.48 | 0.00 | 95 | 1010.7 |
| 20260903052650 | 22 | 152 | 0.0 | 0.0 | 0.00 | 0.48 | 0.00 | 95 | 1010.7 |
| 20260903052544 | 22 | 152 | 0.0 | 0.0 | 0.00 | 0.48 | 0.00 | 95 | 1010.6 |
| 20260903052240 | 22 | 151 | 0.0 | 0.0 | 0.00 | 0.48 | 0.00 | 95 | 1010.6 |
| 20260903052044 | 22 | 152 | 0.0 | 0.0 | 0.00 | 0.48 | 0.00 | 95 | 1010.6 |
| 20260903051844 | 22 | 154 | 0.0 | 0.0 | 0.00 | 0.48 | 0.00 | 94 | 1010.6 |
| 20260903051739 | 22 | 154 | 0.0 | 0.0 | 0.00 | 0.48 | 0.00 | 94 | 1010.6 |
| 20260903051644 | 22 | 151 | 0.0 | 0.0 | 0.00 | 0.48 | 0.00 | 95 | 1010.6 |
| 20260903051624 | 22 | 152 | 0.0 | 0.0 | 0.00 | 0.48 | 0.00 | 94 | 1010.6 |
| 20260903051536 | 22 | 152 | 0.0 | 0.0 | 0.00 | 0.48 | 0.00 | 94 | 1010.6 |
| 20260903051457 | 22 | 152 | 0.0 | 0.0 | 0.00 | 0.48 | 0.00 | 94 | 1010.6 |
| 20260903051141 | 22 | 152 | 0.0 | 0.0 | 0.00 | 0.48 | 0.00 | 94 | 1010.6 |
| 20260903050844 | 22 | 152 | 0.0 | 0.0 | 0.00 | 0.48 | 0.00 | 94 | 1010.7 |
| 20260903050739 | 22 | 152 | 0.0 | 0.0 | 0.00 | 0.48 | 0.00 | 94 | 1010.7 |
| 20260903050645 | 22 | 154 | 0.0 | 0.0 | 0.00 | 0.48 | 0.00 | 94 | 1010.7 |
| 20260903050546 | 22 | 152 | 0.0 | 0.0 | 0.00 | 0.48 | 0.00 | 94 | 1010.7 |
| 20260903050531 | 22 | 152 | 0.0 | 0.0 | 0.00 | 0.48 | 0.00 | 94 | 1010.7 |
| 20260903050457 | 22 | 152 | 0.0 | 0.0 | 0.00 | 0.48 | 0.00 | 94 | 1010.7 |
| 20260903050142 | 22 | 152 | 0.0 | 0.0 | 0.00 | 0.48 | 0.00 | 94 | 1010.8 |
| 20260903045842 | 22 | 152 | 0.0 | 0.0 | 0.00 | 0.48 | 0.48 | 94 | 1010.7 |
| 20260903045752 | 22 | 152 | 0.0 | 0.0 | 0.00 | 0.48 | 0.48 | 94 | 1010.7 |
| 20260903045743 | 22 | 152 | 0.0 | 0.0 | 0.00 | 0.48 | 0.48 | 94 | 1010.7 |
| 20260903045546 | 22 | 152 | 0.0 | 0.0 | 0.00 | 0.48 | 0.48 | 94 | 1010.8 |
| 20260903045529 | 22 | 152 | 0.0 | 0.0 | 0.00 | 0.48 | 0.48 | 94 | 1010.7 |
| 20260903045455 | 22 | 152 | 0.0 | 0.0 | 0.00 | 0.48 | 0.48 | 94 | 1010.8 |
| 20260903045042 | 22 | 152 | 0.0 | 0.0 | 0.00 | 0.48 | 0.48 | 94 | 1010.8 |
| 20260903044941 | 22 | 152 | 0.0 | 0.0 | 0.00 | 0.48 | 0.48 | 94 | 1010.8 |
| 20260903044743 | 22 | 152 | 0.0 | 0.0 | 0.00 | 0.48 | 0.48 | 94 | 1010.8 |
| 20260903044642 | 22 | 152 | 0.0 | 0.0 | 0.00 | 0.48 | 0.48 | 94 | 1010.8 |
| 20260903044442 | 22 | 151 | 0.0 | 0.0 | 0.00 | 0.48 | 0.48 | 94 | 1010.8 |
| 20260903044244 | 22 | 152 | 0.0 | 0.0 | 0.00 | 0.48 | 0.48 | 93 | 1010.9 |
| 20260903044042 | 22 | 152 | 0.0 | 0.0 | 0.00 | 0.48 | 0.48 | 93 | 1010.7 |
| 20260903043941 | 22 | 154 | 0.0 | 0.0 | 0.00 | 0.48 | 0.48 | 93 | 1010.8 |
| 20260903043742 | 22 | 152 | 0.0 | 0.0 | 0.00 | 0.48 | 0.48 | 93 | 1010.8 |
| 20260903043642 | 22 | 154 | 0.0 | 0.0 | 0.00 | 0.48 | 0.48 | 93 | 1010.9 |
| 20260903043543 | 22 | 152 | 0.0 | 0.0 | 0.00 | 0.48 | 0.48 | 93 | 1010.9 |
| 20260903043242 | 22 | 152 | 0.0 | 0.0 | 0.00 | 0.48 | 0.48 | 93 | 1010.8 |
| 20260903043043 | 22 | 152 | 0.0 | 0.0 | 0.00 | 0.48 | 0.48 | 93 | 1010.9 |
| 20260903042842 | 22 | 152 | 0.0 | 0.0 | 0.00 | 0.48 | 0.48 | 93 | 1010.9 |
| 20260903042741 | 22 | 152 | 0.0 | 0.0 | 0.00 | 0.48 | 0.48 | 93 | 1010.9 |
| 20260903042642 | 22 | 152 | 0.0 | 0.0 | 0.00 | 0.48 | 0.48 | 93 | 1010.9 |
| 20260903042542 | 22 | 152 | 0.0 | 0.0 | 0.00 | 0.48 | 0.48 | 93 | 1010.9 |
| 20260903042242 | 22 | 152 | 0.0 | 0.0 | 0.00 | 0.48 | 0.48 | 93 | 1010.9 |
| 20260903042144 | 23 | 154 | 0.0 | 0.0 | 0.00 | 0.48 | 0.48 | 93 | 1010.9 |
| 20260903041842 | 23 | 154 | 0.0 | 0.0 | 0.00 | 0.48 | 0.48 | 93 | 1010.9 |
| 20260903041737 | 23 | 152 | 0.0 | 0.0 | 0.00 | 0.48 | 0.48 | 93 | 1011.0 |
| 20260903041642 | 23 | 152 | 0.0 | 0.0 | 0.00 | 0.48 | 0.48 | 93 | 1011.0 |
| 20260903041442 | 23 | 151 | 0.0 | 0.0 | 0.00 | 0.48 | 0.48 | 93 | 1011.0 |
| 20260903041238 | 23 | 152 | 0.0 | 0.0 | 0.00 | 0.48 | 0.48 | 93 | 1011.1 |
| 20260903041043 | 23 | 154 | 0.0 | 0.0 | 0.00 | 0.48 | 0.48 | 93 | 1011.0 |
| 20260903040842 | 23 | 154 | 0.0 | 0.0 | 0.00 | 0.48 | 0.48 | 93 | 1011.0 |
| 20260903040750 | 23 | 152 | 0.0 | 0.0 | 0.00 | 0.48 | 0.48 | 93 | 1011.0 |
| 20260903040738 | 23 | 154 | 0.0 | 0.0 | 0.00 | 0.48 | 0.48 | 93 | 1011.1 |
| 20260903040442 | 23 | 152 | 0.0 | 0.0 | 0.00 | 0.48 | 0.48 | 92 | 1011.1 |
| 20260903040250 | 23 | 152 | 0.0 | 0.0 | 0.00 | 0.48 | 0.48 | 92 | 1011.0 |
| 20260903040237 | 23 | 152 | 0.0 | 0.0 | 0.00 | 0.48 | 0.48 | 92 | 1011.1 |
| 20260903040144 | 23 | 151 | 0.0 | 0.0 | 0.00 | 0.48 | 0.48 | 92 | 1011.0 |
| 20260903035842 | 23 | 152 | 0.0 | 0.0 | 0.00 | 0.48 | 0.48 | 92 | 1011.0 |
| 20260903035734 | 23 | 152 | 0.0 | 0.0 | 0.00 | 0.48 | 0.48 | 92 | 1011.0 |
| 20260903035641 | 23 | 152 | 0.0 | 0.0 | 0.00 | 0.48 | 0.48 | 92 | 1011.0 |
| 20260903035442 | 23 | 151 | 0.0 | 0.0 | 0.00 | 0.48 | 0.48 | 92 | 1011.1 |
| 20260903035345 | 23 | 154 | 0.0 | 0.0 | 0.00 | 0.48 | 0.48 | 92 | 1010.9 |
| 20260903035235 | 23 | 152 | 0.0 | 0.0 | 0.00 | 0.48 | 0.48 | 92 | 1011.0 |
| 20260903035042 | 23 | 152 | 0.0 | 0.0 | 0.00 | 0.48 | 0.48 | 92 | 1011.0 |
| 20260903034843 | 23 | 152 | 0.0 | 0.0 | 0.00 | 0.48 | 0.48 | 92 | 1011.0 |
| 20260903034749 | 23 | 152 | 0.0 | 0.0 | 0.00 | 0.48 | 0.48 | 92 | 1011.0 |
| 20260903034731 | 23 | 152 | 0.0 | 0.0 | 0.00 | 0.48 | 0.48 | 92 | 1011.0 |
| 20260903034441 | 23 | 154 | 0.0 | 0.0 | 0.00 | 0.48 | 0.48 | 92 | 1011.1 |
| 20260903034245 | 23 | 152 | 0.0 | 0.0 | 0.00 | 0.48 | 0.48 | 92 | 1011.1 |
| 20260903034233 | 23 | 155 | 0.0 | 0.0 | 0.00 | 0.48 | 0.48 | 92 | 1011.1 |
| 20260903034042 | 23 | 152 | 0.0 | 0.0 | 0.00 | 0.48 | 0.48 | 92 | 1011.1 |
| 20260903033941 | 23 | 154 | 0.0 | 0.0 | 0.00 | 0.48 | 0.48 | 92 | 1011.0 |
| 20260903033728 | 23 | 152 | 0.0 | 0.0 | 0.00 | 0.48 | 0.48 | 91 | 1011.1 |
| 20260903033642 | 23 | 152 | 0.0 | 0.0 | 0.00 | 0.48 | 0.48 | 91 | 1011.1 |
| 20260903033444 | 23 | 152 | 0.0 | 0.0 | 0.00 | 0.48 | 0.48 | 91 | 1011.1 |
| 20260903033346 | 23 | 154 | 0.0 | 0.0 | 0.00 | 0.48 | 0.48 | 91 | 1011.0 |
| 20260903033229 | 23 | 154 | 0.0 | 0.0 | 0.00 | 0.48 | 0.48 | 91 | 1011.0 |
| 20260903033042 | 23 | 152 | 0.0 | 0.0 | 0.00 | 0.48 | 0.48 | 91 | 1011.0 |
| 20260903032844 | 23 | 154 | 0.0 | 0.0 | 0.00 | 0.48 | 0.48 | 91 | 1011.0 |
| 20260903032728 | 23 | 152 | 0.0 | 0.0 | 0.00 | 0.48 | 0.48 | 91 | 1011.1 |
| 20260903032641 | 23 | 154 | 0.0 | 0.0 | 0.00 | 0.48 | 0.48 | 91 | 1011.1 |
| 20260903032442 | 23 | 154 | 0.0 | 0.0 | 0.00 | 0.48 | 0.48 | 91 | 1011.1 |
| 20260903032243 | 23 | 154 | 0.0 | 0.0 | 0.00 | 0.48 | 0.48 | 91 | 1011.1 |
| 20260903032228 | 23 | 152 | 0.0 | 0.0 | 0.00 | 0.48 | 0.48 | 92 | 1011.0 |
| 20260903032144 | 23 | 152 | 0.0 | 0.0 | 0.00 | 0.48 | 0.48 | 91 | 1011.1 |
| 20260903031842 | 23 | 154 | 0.0 | 0.0 | 0.00 | 0.48 | 0.48 | 91 | 1011.1 |
| 20260903031744 | 23 | 152 | 0.0 | 0.0 | 0.00 | 0.48 | 0.48 | 91 | 1011.1 |
| 20260903031727 | 23 | 152 | 0.0 | 0.0 | 0.00 | 0.48 | 0.48 | 91 | 1011.1 |
| 20260903031442 | 23 | 151 | 0.0 | 0.0 | 0.00 | 0.48 | 0.48 | 91 | 1011.1 |
| 20260903031240 | 23 | 154 | 0.0 | 0.0 | 0.00 | 0.48 | 0.48 | 91 | 1011.1 |
| 20260903031227 | 23 | 152 | 0.0 | 0.0 | 0.00 | 0.48 | 0.48 | 91 | 1011.1 |
| 20260903031039 | 23 | 152 | 0.0 | 0.0 | 0.00 | 0.48 | 0.48 | 92 | 1011.1 |
| 20260903030832 | 23 | 152 | 0.0 | 0.0 | 0.00 | 0.48 | 0.48 | 92 | 1011.1 |
| 20260903030744 | 23 | 152 | 0.0 | 0.0 | 0.00 | 0.48 | 0.48 | 92 | 1011.2 |
| 20260903030727 | 23 | 152 | 0.0 | 0.0 | 0.00 | 0.48 | 0.48 | 92 | 1011.1 |
| 20260903030431 | 23 | 152 | 0.0 | 0.0 | 0.00 | 0.48 | 0.48 | 91 | 1011.1 |
| 20260903030337 | 23 | 152 | 0.0 | 0.0 | 0.00 | 0.48 | 0.48 | 91 | 1011.1 |
| 20260903030228 | 23 | 152 | 0.0 | 0.0 | 0.00 | 0.48 | 0.48 | 91 | 1011.1 |
| 20260903030031 | 23 | 152 | 0.0 | 0.0 | 0.00 | 0.48 | 0.48 | 91 | 1011.1 |
| 20260903025830 | 23 | 152 | 0.0 | 0.0 | 0.00 | 0.48 | 0.48 | 91 | 1011.1 |
| 20260903025730 | 23 | 151 | 0.0 | 0.0 | 0.00 | 0.48 | 0.48 | 91 | 1011.1 |
| 20260903025630 | 23 | 152 | 0.0 | 0.0 | 0.00 | 0.48 | 0.48 | 91 | 1011.1 |
| 20260903025430 | 23 | 152 | 0.0 | 0.0 | 0.00 | 0.48 | 0.48 | 91 | 1011.1 |
| 20260903025334 | 23 | 154 | 0.0 | 0.0 | 0.00 | 0.48 | 0.48 | 90 | 1011.1 |
| 20260903025231 | 23 | 154 | 0.0 | 0.0 | 0.00 | 0.48 | 0.48 | 90 | 1011.1 |
| 20260903025024 | 23 | 154 | 0.0 | 0.0 | 0.00 | 0.48 | 0.48 | 90 | 1011.0 |
| 20260903024922 | 23 | 154 | 0.0 | 0.0 | 0.00 | 0.48 | 0.48 | 90 | 1011.1 |
| 20260903024743 | 24 | 152 | 0.0 | 0.0 | 0.00 | 0.48 | 0.48 | 90 | 1011.1 |
| 20260903024728 | 24 | 151 | 0.0 | 0.0 | 0.00 | 0.48 | 0.48 | 90 | 1011.0 |
| 20260903024523 | 24 | 152 | 0.0 | 0.0 | 0.00 | 0.48 | 0.48 | 90 | 1011.1 |
| 20260903024228 | -17 | 151 | 0.0 | 0.0 | 0.00 | 0.48 | 0.48 | 1011.2 | |
| 20260903024007 | -17 | 0.0 | 0.0 | 0.00 | 0.48 | 0.48 | |||
| 20260903023807 | -17 | 0.0 | 0.0 | 0.00 | 0.48 | 0.48 | |||
| 20260903023544 | -17 | 0.0 | 0.0 | 0.00 | 0.48 | 0.48 | |||
| 20260903023524 | -17 | 0.0 | 0.0 | 0.00 | 0.48 | 0.48 | |||
| 20260903023237 | -17 | 0.0 | 0.0 | 0.00 | 0.48 | 0.48 | |||
| 20260903023034 | -17 | 0.0 | 0.0 | 0.00 | 0.48 | 0.48 | |||
| 20260903022809 | -17 | 0.0 | 0.0 | 0.00 | 0.48 | 0.48 | 1010.9 | ||
| 20260903022707 | -17 | 0.0 | 0.0 | 0.00 | 0.48 | 0.48 | 1010.9 | ||
| 20260903022506 | -17 | 0.0 | 0.0 | 0.00 | 0.48 | 0.48 | 1010.9 | ||
| 20260903022320 | 25 | 151 | 0.0 | 0.0 | 0.00 | 0.48 | 0.48 | 89 | 1010.9 |
| 20260903022107 | 25 | 151 | 0.0 | 0.0 | 0.00 | 0.48 | 0.48 | 89 | 1010.9 |
| 20260903021851 | 25 | 151 | 0.0 | 0.0 | 0.00 | 0.48 | 0.48 | 89 | 1010.9 |
| 20260903021804 | 25 | 151 | 0.0 | 0.0 | 0.00 | 0.48 | 0.48 | 89 | 1011.0 |
| 20260903021757 | 25 | 151 | 0.0 | 0.0 | 0.00 | 0.48 | 0.48 | 89 | 1011.0 |
| 20260903021549 | 25 | 151 | 0.0 | 0.0 | 0.00 | 0.48 | 0.48 | 89 | 1011.1 |
| 20260903021302 | 25 | 154 | 0.0 | 0.0 | 0.00 | 0.48 | 0.48 | 89 | 1011.0 |
| 20260903021241 | 25 | 152 | 0.0 | 0.0 | 0.00 | 0.48 | 0.48 | 89 | 1011.0 |
| 20260903021037 | 25 | 154 | 0.0 | 0.0 | 0.00 | 0.48 | 0.48 | 89 | 1011.0 |
| 20260903020836 | 25 | 154 | 0.0 | 0.0 | 0.00 | 0.48 | 0.48 | 89 | 1011.0 |
| 20260903020747 | 25 | 152 | 0.0 | 0.0 | 0.00 | 0.48 | 0.48 | 88 | 1011.0 |
| 20260903020636 | 25 | 154 | 0.0 | 0.0 | 0.00 | 0.48 | 0.48 | 88 | 1011.0 |
| 20260903020537 | 25 | 154 | 0.0 | 0.0 | 0.00 | 0.48 | 0.48 | 88 | 1011.0 |
| 20260903020250 | 25 | 152 | 0.0 | 0.0 | 0.00 | 0.48 | 0.48 | 88 | 1010.9 |
| 20260903020236 | 25 | 152 | 0.0 | 0.0 | 0.00 | 0.48 | 0.48 | 88 | 1011.0 |
| 20260903020035 | 25 | 152 | 0.0 | 0.0 | 0.00 | 0.48 | 0.48 | 88 | 1011.0 |
| 20260903015835 | 25 | 152 | 0.0 | 0.0 | 0.00 | 0.48 | 0.48 | 88 | 1010.9 |
| 20260903015802 | 25 | 152 | 0.0 | 0.0 | 0.00 | 0.48 | 0.48 | 88 | 1010.9 |
| 20260903015735 | 25 | 151 | 0.0 | 0.0 | 0.00 | 0.48 | 0.48 | 87 | 1010.9 |
| 20260903015434 | 25 | 152 | 0.0 | 0.0 | 0.00 | 0.48 | 0.48 | 87 | 1011.0 |
| 20260903015250 | 25 | 151 | 0.0 | 0.0 | 0.00 | 0.48 | 0.48 | 87 | 1010.9 |
| 20260903015233 | 25 | 154 | 0.0 | 0.0 | 0.00 | 0.48 | 0.48 | 87 | 1010.9 |
| 20260903015130 | 25 | 152 | 0.0 | 0.0 | 0.00 | 0.48 | 0.48 | 87 | 1010.9 |
| 20260903014831 | 25 | 152 | 0.0 | 0.0 | 0.00 | 0.48 | 0.48 | 87 | 1010.9 |
| 20260903014747 | 25 | 154 | 0.0 | 0.0 | 0.00 | 0.48 | 0.48 | 87 | 1010.9 |
| 20260903014631 | 25 | 154 | 0.0 | 0.0 | 0.00 | 0.48 | 0.48 | 87 | 1010.9 |
| 20260903014430 | 25 | 152 | 0.0 | 0.0 | 0.00 | 0.48 | 0.48 | 87 | 1010.9 |
| 20260903014328 | 25 | 152 | 0.0 | 0.0 | 0.00 | 0.48 | 0.48 | 87 | 1010.9 |
| 20260903014249 | 25 | 152 | 0.0 | 0.0 | 0.00 | 0.48 | 0.48 | 87 | 1010.9 |
| 20260903014029 | 25 | 152 | 0.0 | 0.0 | 0.00 | 0.48 | 0.48 | 87 | 1010.9 |
| 20260903013830 | 25 | 152 | 0.0 | 0.0 | 0.00 | 0.48 | 0.48 | 87 | 1010.9 |
| 20260903013749 | 25 | 152 | 0.0 | 0.0 | 0.00 | 0.48 | 0.48 | 87 | 1010.9 |
| 20260903013729 | 25 | 151 | 0.0 | 0.0 | 0.00 | 0.48 | 0.48 | 87 | 1010.9 |
| 20260903013432 | 25 | 152 | 0.0 | 0.0 | 0.00 | 0.48 | 0.48 | 87 | 1010.8 |
| 20260903013253 | 25 | 152 | 0.0 | 0.0 | 0.00 | 0.48 | 0.48 | 87 | 1010.9 |
| 20260903013229 | 25 | 154 | 0.0 | 0.0 | 0.00 | 0.48 | 0.48 | 87 | 1010.9 |
| 20260903013022 | 26 | 152 | 0.0 | 0.0 | 0.00 | 0.48 | 0.48 | 87 | 1010.8 |
| 20260903012919 | 26 | 152 | 0.0 | 0.0 | 0.00 | 0.48 | 0.48 | 87 | 1010.7 |
| 20260903012743 | 26 | 154 | 0.0 | 0.0 | 0.00 | 0.48 | 0.48 | 87 | 1010.7 |
| 20260903012619 | 26 | 152 | 0.0 | 0.0 | 0.00 | 0.48 | 0.48 | 87 | 1010.7 |
| 20260903012419 | 26 | 154 | 0.0 | 0.0 | 0.00 | 0.48 | 0.48 | 86 | 1010.7 |
| 20260903012255 | 26 | 154 | 0.0 | 0.0 | 0.00 | 0.48 | 0.48 | 86 | 1010.6 |
| 20260903012218 | 26 | 154 | 0.0 | 0.0 | 0.00 | 0.48 | 0.48 | 86 | 1010.6 |
| 20260903012119 | 26 | 154 | 0.0 | 0.0 | 0.00 | 0.48 | 0.48 | 86 | 1010.6 |
| 20260903011819 | 26 | 154 | 0.0 | 0.0 | 0.00 | 0.48 | 0.48 | 87 | 1010.6 |
| 20260903011745 | 26 | 152 | 0.0 | 0.0 | 0.00 | 0.48 | 0.48 | 87 | 1010.7 |
| 20260903011615 | 26 | 152 | 0.0 | 0.0 | 0.00 | 0.48 | 0.48 | 87 | 1010.7 |
| 20260903011511 | 26 | 154 | 0.0 | 0.0 | 0.00 | 0.48 | 0.48 | 87 | 1010.7 |
| 20260903011214 | 26 | 151 | 0.0 | 0.0 | 0.00 | 0.48 | 0.48 | 86 | 1010.8 |
| 20260903011058 | 26 | 152 | 0.0 | 0.0 | 0.00 | 0.48 | 0.48 | 84 | 1010.6 |
| 20260903011045 | 26 | 154 | 0.0 | 0.0 | 0.00 | 0.48 | 0.48 | 85 | 1010.7 |
| 20260903011006 | 26 | 154 | 0.0 | 0.0 | 0.00 | 0.48 | 0.48 | 84 | 1010.6 |
| 20260903010711 | 26 | 154 | 0.0 | 0.0 | 0.00 | 0.48 | 0.48 | 84 | 1010.5 |
| 20260903010412 | 26 | 152 | 0.0 | 0.0 | 0.00 | 0.48 | 0.48 | 84 | 1010.4 |
| 20260903010251 | 26 | 151 | 0.0 | 0.0 | 0.00 | 0.48 | 0.48 | 83 | 1010.3 |
| 20260903010214 | 26 | 154 | 0.0 | 0.0 | 0.00 | 0.48 | 0.48 | 83 | 1010.3 |
| 20260903010115 | 26 | 152 | 0.0 | 0.0 | 0.00 | 0.48 | 0.48 | 83 | 1010.4 |
| 20260903005811 | 26 | 152 | 0.0 | 0.0 | 0.00 | 0.48 | 0.48 | 83 | 1010.3 |
| 20260903005738 | 26 | 152 | 0.0 | 0.0 | 0.00 | 0.48 | 0.48 | 83 | 1010.4 |
| 20260903005610 | 26 | 152 | 0.0 | 0.0 | 0.00 | 0.48 | 0.48 | 83 | 1010.3 |
| 20260903005410 | 26 | 152 | 0.0 | 0.0 | 0.00 | 0.48 | 0.48 | 83 | 1010.3 |
| 20260903005311 | 26 | 152 | 0.0 | 0.0 | 0.00 | 0.48 | 0.48 | 82 | 1010.5 |
| 20260903005239 | 26 | 152 | 0.0 | 0.0 | 0.00 | 0.48 | 0.48 | 82 | 1010.5 |
| 20260903005009 | 27 | 152 | 0.0 | 0.0 | 0.00 | 0.48 | 0.48 | 82 | 1010.4 |
| 20260903004809 | 27 | 152 | 0.0 | 0.0 | 0.00 | 0.48 | 0.48 | 82 | 1010.4 |
| 20260903004740 | 27 | 152 | 0.0 | 0.0 | 0.00 | 0.48 | 0.48 | 82 | 1010.4 |
| 20260903004706 | 27 | 152 | 0.0 | 0.0 | 0.00 | 0.48 | 0.48 | 82 | 1010.4 |
| 20260903004404 | 27 | 154 | 0.0 | 0.0 | 0.00 | 0.48 | 0.48 | 82 | 1010.3 |
| 20260903004237 | 27 | 152 | 0.0 | 0.0 | 0.00 | 0.48 | 0.48 | 82 | 1010.3 |
| 20260903004205 | 27 | 152 | 0.0 | 0.0 | 0.00 | 0.48 | 0.48 | 82 | 1010.3 |
| 20260903004103 | 27 | 152 | 0.0 | 0.0 | 0.00 | 0.48 | 0.48 | 81 | 1010.4 |
| 20260903003901 | 27 | 152 | 0.0 | 0.0 | 0.00 | 0.48 | 0.48 | 80 | 1010.4 |
| 20260903003736 | 27 | 152 | 0.0 | 0.0 | 0.00 | 0.48 | 0.48 | 80 | 1010.4 |
| 20260903003604 | 27 | 152 | 0.0 | 0.0 | 0.00 | 0.48 | 0.48 | 79 | 1010.4 |
| 20260903003403 | 27 | 152 | 0.0 | 0.0 | 0.00 | 0.48 | 0.48 | 79 | 1010.4 |
| 20260903003237 | 27 | 152 | 0.0 | 0.0 | 0.00 | 0.48 | 0.48 | 79 | 1010.4 |
| 20260903003200 | 27 | 154 | 0.0 | 0.0 | 0.00 | 0.48 | 0.48 | 78 | 1010.4 |
| 20260903002959 | 27 | 152 | 0.0 | 0.0 | 0.00 | 0.48 | 0.48 | 78 | 1010.4 |
| 20260903002758 | 27 | 152 | 0.0 | 0.0 | 0.00 | 0.48 | 0.48 | 77 | 1010.5 |
| 20260903002736 | 27 | 154 | 0.0 | 0.0 | 0.00 | 0.48 | 0.48 | 77 | 1010.4 |
| 20260903002654 | 27 | 152 | 0.0 | 0.0 | 0.00 | 0.48 | 0.48 | 77 | 1010.5 |
| 20260903002458 | 27 | 152 | 0.0 | 0.0 | 0.00 | 0.48 | 0.48 | 76 | 1010.5 |
| 20260903002234 | 28 | 152 | 0.0 | 0.0 | 0.00 | 0.48 | 0.48 | 76 | 1010.5 |
| 20260903002159 | 28 | 154 | 0.0 | 0.0 | 0.00 | 0.48 | 0.48 | 76 | 1010.5 |
| 20260903001957 | 28 | 152 | 0.0 | 0.0 | 0.00 | 0.48 | 0.48 | 76 | 1010.4 |
| 20260903001757 | 28 | 152 | 0.0 | 0.0 | 0.00 | 0.48 | 0.48 | 75 | 1010.4 |
| 20260903001735 | 28 | 152 | 0.0 | 0.0 | 0.00 | 0.48 | 0.48 | 75 | 1010.5 |
| 20260903001553 | 28 | 152 | 0.0 | 0.0 | 0.00 | 0.48 | 0.48 | 74 | 1010.4 |
| 20260903001354 | 28 | 152 | 0.0 | 0.0 | 0.00 | 0.48 | 0.48 | 74 | 1010.4 |
| 20260903001251 | 28 | 151 | 0.0 | 0.0 | 0.00 | 0.48 | 0.48 | 74 | 1010.4 |
| 20260903001233 | 28 | 152 | 0.0 | 0.0 | 0.00 | 0.48 | 0.48 | 74 | 1010.4 |
| 20260903001052 | 28 | 152 | 0.0 | 0.0 | 0.00 | 0.48 | 0.48 | 73 | 1010.5 |
| 20260903000753 | 29 | 152 | 0.0 | 0.0 | 0.00 | 0.48 | 0.48 | 72 | 1010.5 |
| 20260903000732 | 29 | 152 | 0.0 | 0.0 | 0.00 | 0.48 | 0.48 | 72 | 1010.4 |
| 20260903000551 | 29 | 154 | 0.0 | 0.0 | 0.00 | 0.48 | 0.48 | 71 | 1010.4 |
| 20260903000355 | 29 | 152 | 0.0 | 0.0 | 0.00 | 0.48 | 0.48 | 71 | 1010.5 |
| 20260903000233 | 29 | 154 | 0.0 | 0.0 | 0.00 | 0.48 | 0.48 | 70 | 1010.5 |
| 20260903000151 | 29 | 152 | 0.0 | 0.0 | 0.00 | 0.48 | 0.48 | 71 | 1010.5 |
| 20260902235950 | 30 | 152 | 0.0 | 1.6 | 0.00 | 0.48 | 0.48 | 71 | 1010.5 |
| 20260902235749 | 30 | 154 | 0.0 | 3.2 | 0.00 | 0.48 | 0.48 | 70 | 1010.6 |
| 20260902235730 | 30 | 154 | 0.0 | 3.2 | 0.00 | 0.48 | 0.48 | 69 | 1010.5 |
| 20260902235648 | 30 | 152 | 0.0 | 3.2 | 0.00 | 0.48 | 0.48 | 69 | 1010.5 |
| 20260902235442 | 30 | 152 | 0.0 | 3.2 | 0.00 | 0.48 | 0.48 | 69 | 1010.5 |
| 20260902235231 | 30 | 151 | 0.0 | 3.2 | 0.00 | 0.48 | 0.48 | 69 | 1010.5 |
| 20260902235145 | 30 | 152 | 0.0 | 3.2 | 0.00 | 0.48 | 0.48 | 69 | 1010.5 |
| 20260902234949 | 30 | 152 | 0.0 | 3.2 | 0.00 | 0.48 | 0.48 | 68 | 1010.4 |
| 20260902234732 | 30 | 152 | 0.0 | 3.2 | 0.00 | 0.48 | 0.48 | 69 | 1010.5 |
| 20260902234547 | 30 | 152 | 0.0 | 3.2 | 0.00 | 0.48 | 0.48 | 69 | 1010.5 |
| 20260902234339 | 30 | 152 | 0.0 | 3.2 | 0.00 | 0.48 | 0.48 | 70 | 1010.6 |
| 20260902234238 | 30 | 152 | 0.0 | 3.2 | 0.00 | 0.48 | 0.48 | 70 | 1010.6 |
| 20260902234233 | 30 | 154 | 0.0 | 3.2 | 0.00 | 0.48 | 0.48 | 71 | 1010.5 |
| 20260902234032 | 30 | 152 | 0.0 | 3.2 | 0.00 | 0.48 | 0.48 | 68 | 1010.5 |
| 20260902233736 | 30 | 154 | 0.0 | 3.2 | 0.00 | 0.48 | 0.48 | 67 | 1010.5 |
| 20260902233730 | 30 | 151 | 0.0 | 3.2 | 0.00 | 0.48 | 0.48 | 67 | 1010.5 |
| 20260902233532 | 31 | 152 | 0.0 | 3.2 | 0.00 | 0.48 | 0.48 | 66 | 1010.5 |
| 20260902233331 | 31 | 151 | 0.0 | 3.2 | 0.00 | 0.48 | 0.48 | 67 | 1010.5 |
| 20260902233230 | 31 | 151 | 0.0 | 3.2 | 0.00 | 0.48 | 0.48 | 68 | 1010.6 |
| 20260902233131 | 31 | 151 | 0.0 | 3.2 | 0.00 | 0.48 | 0.48 | 68 | 1010.5 |
| 20260902232932 | 31 | 152 | 0.0 | 4.8 | 0.00 | 0.48 | 0.48 | 65 | 1010.6 |
| 20260902232831 | 31 | 152 | 0.0 | 4.8 | 0.00 | 0.48 | 0.48 | 66 | 1010.5 |
| 20260902232729 | 31 | 152 | 0.0 | 4.8 | 0.00 | 0.48 | 0.48 | 66 | 1010.5 |
| 20260902232530 | 31 | 154 | 0.0 | 4.8 | 0.00 | 0.48 | 0.48 | 65 | 1010.6 |
| 20260902232331 | 31 | 151 | 0.0 | 4.8 | 0.00 | 0.48 | 0.48 | 67 | 1010.6 |
| 20260902232241 | 31 | 152 | 0.0 | 4.8 | 0.00 | 0.48 | 0.48 | 67 | 1010.6 |
| 20260902232129 | 31 | 154 | 0.0 | 4.8 | 0.00 | 0.48 | 0.48 | 68 | 1010.6 |
| 20260902231928 | 31 | 135 | 0.0 | 3.2 | 0.00 | 0.48 | 0.48 | 67 | 1010.5 |
| 20260902231730 | 31 | 133 | 0.0 | 3.2 | 0.00 | 0.48 | 0.48 | 64 | 1010.6 |
| 20260902231533 | 31 | 134 | 0.0 | 3.2 | 0.00 | 0.48 | 0.48 | 63 | 1010.6 |
| 20260902231526 | 31 | 134 | 0.0 | 3.2 | 0.00 | 0.48 | 0.48 | 64 | 1010.6 |
| 20260902231226 | 31 | 134 | 0.0 | 3.2 | 0.00 | 0.48 | 0.48 | 63 | 1010.6 |
| 20260902231129 | 31 | 133 | 0.0 | 3.2 | 0.00 | 0.48 | 0.48 | 64 | 1010.6 |
| 20260902230923 | 31 | 130 | 0.0 | 3.2 | 0.00 | 0.48 | 0.48 | 64 | 1010.6 |
| 20260902230728 | 31 | 130 | 0.0 | 3.2 | 0.00 | 0.48 | 0.48 | 63 | 1010.6 |
| 20260902230721 | 31 | 131 | 0.0 | 3.2 | 0.00 | 0.48 | 0.48 | 63 | 1010.6 |
| 20260902230520 | 31 | 131 | 0.0 | 3.2 | 0.00 | 0.48 | 0.48 | 66 | 1010.6 |
| 20260902230319 | 31 | 130 | 0.0 | 3.2 | 0.00 | 0.48 | 0.48 | 65 | 1010.6 |
| 20260902230225 | 31 | 128 | 0.0 | 3.2 | 0.00 | 0.48 | 0.48 | 66 | 1010.6 |
| 20260902230119 | 31 | 128 | 0.0 | 3.2 | 0.00 | 0.48 | 0.48 | 66 | 1010.6 |
| 20260902230111 | 30 | 128 | 0.0 | 3.2 | 0.00 | 0.48 | 0.48 | 65 | 1010.6 |
| 20260902225712 | 30 | 130 | 0.0 | 4.8 | 0.00 | 0.48 | 0.48 | 66 | 1010.7 |
| 20260902225516 | 30 | 128 | 0.0 | 4.8 | 0.00 | 0.48 | 0.48 | 66 | 1010.6 |
| 20260902225317 | 30 | 127 | 0.0 | 4.8 | 0.00 | 0.48 | 0.48 | 66 | 1010.7 |
| 20260902225214 | 30 | 130 | 0.0 | 4.8 | 0.00 | 0.48 | 0.48 | 67 | 1010.6 |
| 20260902225116 | 30 | 128 | 0.0 | 4.8 | 0.00 | 0.48 | 0.48 | 68 | 1010.7 |
| 20260902224914 | 30 | 128 | 0.0 | 4.8 | 0.00 | 0.48 | 0.48 | 67 | 1010.6 |
| 20260902224711 | 30 | 130 | 0.0 | 3.2 | 0.00 | 0.48 | 0.48 | 68 | 1010.6 |
| 20260902224513 | 30 | 130 | 0.0 | 3.2 | 0.00 | 0.48 | 0.48 | 67 | 1010.6 |
| 20260902224414 | 30 | 182 | 0.0 | 3.2 | 0.00 | 0.48 | 0.48 | 68 | 1010.6 |
| 20260902224214 | 30 | 190 | 0.0 | 3.2 | 0.00 | 0.48 | 0.48 | 68 | 1010.5 |
| 20260902224210 | 30 | 179 | 0.0 | 3.2 | 0.00 | 0.48 | 0.48 | 68 | 1010.5 |
| 20260902223911 | 30 | 190 | 0.0 | 3.2 | 0.00 | 0.48 | 0.48 | 70 | 1010.6 |
| 20260902223715 | 30 | 190 | 0.0 | 1.6 | 0.00 | 0.48 | 0.48 | 68 | 1010.5 |
| 20260902223709 | 30 | 193 | 0.0 | 1.6 | 0.00 | 0.48 | 0.48 | 68 | 1010.5 |
| 20260902223512 | 30 | 193 | 0.0 | 0.0 | 0.00 | 0.48 | 0.48 | 68 | 1010.6 |
| 20260902223313 | 30 | 193 | 0.0 | 4.8 | 0.00 | 0.48 | 0.48 | 68 | 1010.7 |
| 20260902223207 | 30 | 192 | 0.0 | 6.4 | 0.00 | 0.48 | 0.48 | 67 | 1010.7 |
| 20260902223117 | 30 | 193 | 0.0 | 6.4 | 0.00 | 0.48 | 0.48 | 69 | 1010.7 |
| 20260902223112 | 30 | 192 | 0.0 | 6.4 | 0.00 | 0.48 | 0.48 | 68 | 1010.6 |
| 20260902222959 | 30 | 193 | 0.0 | 6.4 | 0.00 | 0.48 | 0.48 | 69 | 1010.7 |
| 20260902222945 | 30 | 193 | 0.0 | 6.4 | 0.00 | 0.48 | 0.48 | 68 | 1010.7 |
| 20260902222506 | 30 | 193 | 0.0 | 6.4 | 0.00 | 0.48 | 0.48 | 65 | 1010.7 |
| 20260902222306 | 30 | 192 | 0.0 | 6.4 | 0.00 | 0.48 | 0.48 | 66 | 1010.8 |
| 20260902222208 | 30 | 193 | 0.0 | 4.8 | 0.00 | 0.48 | 0.48 | 65 | 1010.7 |
| 20260902222105 | 30 | 192 | 0.0 | 4.8 | 0.00 | 0.48 | 0.48 | 65 | 1010.7 |
| 20260902221905 | 30 | 190 | 0.0 | 6.4 | 0.00 | 0.48 | 0.48 | 64 | 1010.7 |
| 20260902221708 | 30 | 192 | 0.0 | 6.4 | 0.00 | 0.48 | 0.48 | 64 | 1010.7 |
| 20260902221603 | 30 | 193 | 0.0 | 6.4 | 0.00 | 0.48 | 0.48 | 64 | 1010.7 |
| 20260902221402 | 30 | 193 | 0.0 | 6.4 | 0.00 | 0.48 | 0.48 | 64 | 1010.7 |
| 20260902221217 | 31 | 190 | 0.0 | 6.4 | 0.00 | 0.48 | 0.48 | 66 | 1010.6 |
| 20260902221104 | 30 | 193 | 0.0 | 6.4 | 0.00 | 0.48 | 0.48 | 64 | 1010.7 |
| 20260902220903 | 30 | 193 | 0.0 | 6.4 | 0.00 | 0.48 | 0.48 | 66 | 1010.7 |
| 20260902220705 | 30 | 195 | 0.0 | 6.4 | 0.00 | 0.48 | 0.48 | 66 | 1010.7 |
| 20260902220504 | 31 | 189 | 0.0 | 6.4 | 0.00 | 0.48 | 0.48 | 65 | 1010.7 |
| 20260902220302 | 31 | 190 | 0.0 | 6.4 | 0.00 | 0.48 | 0.48 | 65 | 1010.7 |
| 20260902220211 | 31 | 189 | 0.0 | 6.4 | 0.00 | 0.48 | 0.48 | 66 | 1010.6 |
| 20260902220206 | 31 | 188 | 0.0 | 6.4 | 0.00 | 0.48 | 0.48 | 64 | 1010.6 |
| 20260902220009 | 31 | 37 | 0.0 | 4.8 | 0.00 | 0.48 | 0.48 | 67 | 1010.7 |
| 20260902215705 | 31 | 37 | 0.0 | 3.2 | 0.00 | 0.48 | 0.48 | 68 | 1010.7 |
| 20260902215505 | 30 | 35 | 0.0 | 1.6 | 0.00 | 0.48 | 0.48 | 69 | 1010.7 |
| 20260902215306 | 30 | 35 | 0.0 | 3.2 | 0.00 | 0.48 | 0.48 | 69 | 1010.7 |
| 20260902215207 | 31 | 178 | 0.0 | 3.2 | 0.00 | 0.48 | 0.48 | 70 | 1010.7 |
| 20260902215107 | 31 | 178 | 0.0 | 3.2 | 0.00 | 0.48 | 0.48 | 70 | 1010.7 |
| 20260902214955 | 30 | 178 | 0.0 | 6.4 | 0.00 | 0.48 | 0.48 | 66 | 1010.8 |
| 20260902214951 | 30 | 178 | 0.0 | 6.4 | 0.00 | 0.48 | 0.48 | 66 | 1010.8 |
| 20260902214937 | 31 | 179 | 0.0 | 4.8 | 0.00 | 0.48 | 0.48 | 70 | 1010.7 |
| 20260902214535 | 30 | 180 | 0.0 | 6.4 | 0.00 | 0.48 | 0.48 | 68 | 1010.9 |
| 20260902214237 | 30 | 179 | 0.0 | 6.4 | 0.00 | 0.48 | 0.48 | 67 | 1010.8 |
| 20260902214202 | 30 | 179 | 0.0 | 6.4 | 0.00 | 0.48 | 0.48 | 67 | 1010.8 |
| 20260902214039 | 30 | 179 | 0.0 | 6.4 | 0.00 | 0.48 | 0.48 | 66 | 1010.8 |
| 20260902213835 | 31 | 178 | 0.0 | 6.4 | 0.00 | 0.48 | 0.48 | 65 | 1010.9 |
| 20260902213701 | 31 | 172 | 0.0 | 6.4 | 0.00 | 0.48 | 0.48 | 66 | 1010.9 |
| 20260902213636 | 31 | 171 | 0.0 | 6.4 | 0.00 | 0.48 | 0.48 | 65 | 1010.8 |
| 20260902213436 | 31 | 171 | 0.0 | 6.4 | 0.00 | 0.48 | 0.48 | 65 | 1010.8 |
| 20260902213302 | 30 | 172 | 0.0 | 8.0 | 0.00 | 0.48 | 0.48 | 64 | 1010.8 |
| 20260902213201 | 31 | 172 | 0.0 | 8.0 | 0.00 | 0.48 | 0.48 | 64 | 1010.8 |
| 20260902213102 | 31 | 172 | 0.0 | 8.0 | 0.00 | 0.48 | 0.48 | 65 | 1010.9 |
| 20260902212807 | 31 | 157 | 0.0 | 8.0 | 0.00 | 0.48 | 0.48 | 64 | 1010.9 |
| 20260902212702 | 31 | 155 | 0.0 | 8.0 | 0.00 | 0.48 | 0.48 | 66 | 1010.9 |
| 20260902212607 | 31 | 151 | 0.0 | 8.0 | 0.00 | 0.48 | 0.48 | 66 | 1010.9 |
| 20260902212348 | 31 | 151 | 0.0 | 8.0 | 0.00 | 0.48 | 0.48 | 66 | 1011.0 |
| 20260902212245 | 31 | 0 | 0.0 | 6.4 | 0.00 | 0.48 | 0.48 | 67 | 1010.9 |
| 20260902212202 | 31 | 0 | 0.0 | 6.4 | 0.00 | 0.48 | 0.48 | 67 | 1010.9 |
| 20260902211946 | 31 | 1 | 0.0 | 6.4 | 0.00 | 0.48 | 0.48 | 66 | 1010.9 |
| 20260902211852 | 31 | 0 | 0.0 | 6.4 | 0.00 | 0.48 | 0.48 | 63 | 1011.0 |
| 20260902211701 | 31 | 0 | 0.0 | 6.4 | 0.00 | 0.48 | 0.48 | 63 | 1011.0 |
| 20260902211548 | 31 | 42 | 0.0 | 6.4 | 0.00 | 0.48 | 0.48 | 67 | 1011.0 |
| 20260902211349 | 31 | 58 | 0.0 | 6.4 | 0.00 | 0.48 | 0.48 | 66 | 1010.9 |
| 20260902211201 | 31 | 17 | 0.0 | 4.8 | 0.00 | 0.48 | 0.48 | 67 | 1011.0 |
| 20260902211137 | 31 | 17 | 0.0 | 4.8 | 0.00 | 0.48 | 0.48 | 66 | 1011.0 |
| 20260902210937 | 31 | 63 | 0.0 | 4.8 | 0.00 | 0.48 | 0.48 | 65 | 1011.0 |
| 20260902210835 | 31 | 152 | 0.0 | 4.8 | 0.00 | 0.48 | 0.48 | 64 | 1011.0 |
| 20260902210702 | 31 | 151 | 0.0 | 4.8 | 0.00 | 0.48 | 0.48 | 64 | 1011.0 |
| 20260902210535 | 31 | 152 | 0.0 | 6.4 | 0.00 | 0.48 | 0.48 | 64 | 1011.0 |
| 20260902210432 | 31 | 41 | 0.0 | 6.4 | 0.00 | 0.48 | 0.48 | 64 | 1011.0 |
| 20260902210203 | 31 | 37 | 0.0 | 6.4 | 0.00 | 0.48 | 0.48 | 64 | 1011.0 |
| 20260902210134 | 31 | 37 | 0.0 | 6.4 | 0.00 | 0.48 | 0.48 | 64 | 1011.1 |
| 20260902210008 | 31 | 65 | 0.0 | 6.4 | 0.00 | 0.48 | 0.48 | 66 | 1011.1 |
| 20260902205949 | 31 | 32 | 0.0 | 6.4 | 0.00 | 0.48 | 0.48 | 65 | 1011.1 |
| 20260902205918 | 31 | 65 | 0.0 | 6.4 | 0.00 | 0.48 | 0.48 | 66 | 1011.1 |
| 20260902205534 | 31 | 144 | 0.0 | 4.8 | 0.00 | 0.48 | 0.48 | 62 | 1011.1 |
| 20260902205434 | 31 | 142 | 0.0 | 4.8 | 0.00 | 0.48 | 0.48 | 65 | 1011.1 |
| 20260902205201 | 31 | 37 | 0.0 | 6.4 | 0.00 | 0.48 | 0.48 | 66 | 1011.1 |
| 20260902205133 | 31 | 39 | 0.0 | 6.4 | 0.00 | 0.48 | 0.48 | 66 | 1011.1 |
| 20260902205050 | 31 | 37 | 0.0 | 6.4 | 0.00 | 0.48 | 0.48 | 66 | 1011.0 |
| 20260902204959 | 31 | 38 | 0.0 | 6.4 | 0.00 | 0.48 | 0.48 | 67 | 1011.0 |
| 20260902204918 | 31 | 38 | 0.0 | 6.4 | 0.00 | 0.48 | 0.48 | 65 | 1011.0 |
| 20260902204523 | 31 | 38 | 0.0 | 6.4 | 0.00 | 0.48 | 0.48 | 64 | 1011.0 |
| 20260902204323 | 31 | 41 | 0.0 | 6.4 | 0.00 | 0.48 | 0.48 | 65 | 1011.0 |
| 20260902204202 | 31 | 350 | 0.0 | 6.4 | 0.00 | 0.48 | 0.48 | 65 | 1011.0 |
| 20260902204121 | 31 | 42 | 0.0 | 6.4 | 0.00 | 0.48 | 0.48 | 65 | 1011.0 |
| 20260902204006 | 31 | 68 | 0.0 | 6.4 | 0.00 | 0.48 | 0.48 | 64 | 1011.1 |
| 20260902203950 | 31 | 44 | 0.0 | 6.4 | 0.00 | 0.48 | 0.48 | 64 | 1011.0 |
| 20260902203918 | 31 | 45 | 0.0 | 6.4 | 0.00 | 0.48 | 0.48 | 64 | 1011.1 |
| 20260902203618 | 31 | 73 | 0.0 | 6.4 | 0.00 | 0.48 | 0.48 | 64 | 1011.0 |
| 20260902203419 | 31 | 31 | 0.0 | 6.4 | 0.00 | 0.48 | 0.48 | 70 | 1011.0 |
| 20260902203203 | 31 | 31 | 0.0 | 6.4 | 0.00 | 0.48 | 0.48 | 67 | 1011.0 |
| 20260902203119 | 31 | 27 | 0.0 | 6.4 | 0.00 | 0.48 | 0.48 | 68 | 1011.0 |
| 20260902202915 | 31 | 41 | 0.0 | 6.4 | 0.00 | 0.48 | 0.48 | 68 | 1011.0 |
| 20260902202702 | 30 | 52 | 0.0 | 8.0 | 0.00 | 0.48 | 0.48 | 69 | 1011.1 |
| 20260902202513 | 31 | 52 | 0.0 | 9.7 | 0.00 | 0.48 | 0.48 | 67 | 1011.0 |
| 20260902202313 | 31 | 55 | 0.0 | 9.7 | 0.00 | 0.48 | 0.48 | 65 | 1011.1 |
| 20260902202211 | 31 | 76 | 0.0 | 9.7 | 0.00 | 0.48 | 0.48 | 68 | 1011.1 |
| 20260902202204 | 31 | 58 | 0.0 | 9.7 | 0.00 | 0.48 | 0.48 | 66 | 1011.1 |
| 20260902202016 | 31 | 45 | 0.0 | 9.7 | 0.00 | 0.48 | 0.48 | 66 | 1011.1 |
| 20260902201711 | 31 | 38 | 0.0 | 9.7 | 0.00 | 0.48 | 0.48 | 68 | 1011.1 |
| 20260902201646 | 31 | 38 | 0.0 | 9.7 | 0.00 | 0.48 | 0.48 | 68 | 1011.1 |
| 20260902201511 | 30 | 48 | 0.0 | 4.8 | 0.00 | 0.48 | 0.48 | 69 | 1011.1 |
| 20260902201312 | 30 | 49 | 0.0 | 4.8 | 0.00 | 0.48 | 0.48 | 65 | 1011.1 |
| 20260902201150 | 30 | 49 | 0.0 | 4.8 | 0.00 | 0.48 | 0.48 | 67 | 1011.1 |
| 20260902201110 | 30 | 49 | 0.0 | 4.8 | 0.00 | 0.48 | 0.48 | 65 | 1011.4 |
| 20260902200909 | 30 | 56 | 0.0 | 8.0 | 0.00 | 0.48 | 0.48 | 67 | 1011.4 |
| 20260902200806 | 30 | 38 | 0.0 | 8.0 | 0.00 | 0.48 | 0.48 | 68 | 1011.2 |
| 20260902200648 | 30 | 37 | 0.0 | 8.0 | 0.00 | 0.48 | 0.48 | 72 | 1011.2 |
| 20260902200609 | 30 | 37 | 0.0 | 8.0 | 0.00 | 0.48 | 0.48 | 66 | 1011.4 |
| 20260902200310 | 30 | 37 | 0.0 | 8.0 | 0.00 | 0.48 | 0.48 | 67 | 1011.4 |
| 20260902200148 | 30 | 38 | 0.0 | 8.0 | 0.00 | 0.48 | 0.48 | 65 | 1011.4 |
| 20260902200108 | 31 | 59 | 0.0 | 8.0 | 0.00 | 0.48 | 0.48 | 65 | 1011.4 |
| 20260902195909 | 31 | 34 | 0.0 | 8.0 | 0.00 | 0.48 | 0.48 | 69 | 1011.5 |
| 20260902195704 | 30 | 59 | 0.0 | 8.0 | 0.00 | 0.48 | 0.48 | 68 | 1011.6 |
| 20260902195648 | 30 | 61 | 0.0 | 8.0 | 0.00 | 0.48 | 0.48 | 68 | 1011.6 |
| 20260902195602 | 30 | 28 | 0.0 | 6.4 | 0.00 | 0.48 | 0.48 | 71 | 1011.6 |
| 20260902195306 | 30 | 49 | 0.0 | 6.4 | 0.00 | 0.48 | 0.48 | 71 | 1011.6 |
| 20260902195202 | 30 | 49 | 0.0 | 6.4 | 0.00 | 0.48 | 0.48 | 71 | 1011.7 |
| 20260902195148 | 30 | 49 | 0.0 | 6.4 | 0.00 | 0.48 | 0.48 | 72 | 1011.6 |
| 20260902194952 | 30 | 51 | 0.0 | 6.4 | 0.00 | 0.48 | 0.48 | 69 | 1011.8 |
| 20260902194939 | 30 | 51 | 0.0 | 6.4 | 0.00 | 0.48 | 0.48 | 67 | 1011.7 |
| 20260902194903 | 30 | 49 | 0.0 | 6.4 | 0.00 | 0.48 | 0.48 | 69 | 1011.7 |
| 20260902194504 | 30 | 52 | 0.0 | 6.4 | 0.00 | 0.48 | 0.48 | 66 | 1011.8 |
| 20260902194304 | 30 | 250 | 0.0 | 4.8 | 0.00 | 0.48 | 0.48 | 71 | 1011.8 |
| 20260902194203 | 30 | 250 | 0.0 | 4.8 | 0.00 | 0.48 | 0.48 | 71 | 1011.7 |
| 20260902194146 | 30 | 251 | 0.0 | 4.8 | 0.00 | 0.48 | 0.48 | 66 | 1011.7 |
| 20260902193905 | 30 | 189 | 0.0 | 4.8 | 0.00 | 0.48 | 0.48 | 68 | 1011.8 |
| 20260902193801 | 30 | 192 | 0.0 | 6.4 | 0.00 | 0.48 | 0.48 | 67 | 1011.8 |
| 20260902193645 | 30 | 192 | 0.0 | 6.4 | 0.00 | 0.48 | 0.48 | 67 | 1011.9 |
| 20260902193502 | 30 | 192 | 0.0 | 6.4 | 0.00 | 0.48 | 0.48 | 68 | 1012.0 |
| 20260902193304 | 30 | 192 | 0.0 | 6.4 | 0.00 | 0.48 | 0.48 | 66 | 1011.9 |
| 20260902193147 | 30 | 41 | 0.0 | 6.4 | 0.00 | 0.48 | 0.48 | 69 | 1012.0 |
| 20260902193102 | 30 | 39 | 0.0 | 6.4 | 0.00 | 0.48 | 0.48 | 68 | 1011.9 |
| 20260902192902 | 30 | 41 | 0.0 | 6.4 | 0.00 | 0.48 | 0.48 | 67 | 1011.9 |
| 20260902192800 | 30 | 41 | 0.0 | 6.4 | 0.00 | 0.48 | 0.48 | 65 | 1011.9 |
| 20260902192645 | 30 | 58 | 0.0 | 6.4 | 0.00 | 0.48 | 0.48 | 66 | 1011.9 |
| 20260902192502 | 30 | 59 | 0.0 | 6.4 | 0.00 | 0.48 | 0.48 | 69 | 1011.9 |
| 20260902192306 | 30 | 59 | 0.0 | 4.8 | 0.00 | 0.48 | 0.48 | 70 | 1011.9 |
| 20260902192145 | 30 | 138 | 0.0 | 4.8 | 0.00 | 0.48 | 0.48 | 66 | 1012.0 |
| 20260902192101 | 30 | 39 | 0.0 | 4.8 | 0.00 | 0.48 | 0.48 | 66 | 1012.0 |
| 20260902191958 | 30 | 47 | 0.0 | 4.8 | 0.00 | 0.48 | 0.48 | 70 | 1011.9 |
| 20260902191657 | 29 | 180 | 0.0 | 6.4 | 0.00 | 0.48 | 0.48 | 70 | 1011.9 |
| 20260902191645 | 29 | 179 | 0.0 | 6.4 | 0.00 | 0.48 | 0.48 | 70 | 1011.9 |
| 20260902191455 | 29 | 180 | 0.0 | 6.4 | 0.00 | 0.48 | 0.48 | 70 | 1011.9 |
| 20260902191359 | 28 | 179 | 0.0 | 6.4 | 0.00 | 0.48 | 0.48 | 71 | 1011.8 |
| 20260902191145 | 28 | 182 | 0.0 | 6.4 | 0.00 | 0.48 | 0.48 | 70 | 1011.9 |
| 20260902191054 | 28 | 180 | 0.0 | 6.4 | 0.00 | 0.48 | 0.48 | 71 | 1011.9 |
| 20260902190854 | 28 | 179 | 0.0 | 6.4 | 0.00 | 0.48 | 0.48 | 70 | 1011.9 |